Observation data for Fort Chadbourne on 12/07/2018      Previous  Date       Current Mesonet Observations  Soil Data  Daily Summary Page  Observations in Plain Language
KCH1 070600Z 02005KT 05/01 A3029 RMK A01 T00520012  RH  075%=      5-min Rain = 0
KCH1 070601Z 01007KT 05/01 A3029 RMK A01 T00520012  RH  075%=      5-min Rain = 0
KCH1 070602Z 01006KT 05/01 A3029 RMK A01 T00520011  RH  075%=      5-min Rain = 0
KCH1 070603Z 00006KT 05/01 A3029 RMK A01 T00520011  RH  075%=      5-min Rain = 0
KCH1 070604Z 01008KT 05/01 A3029 RMK A01 T00520011  RH  075%=      5-min Rain = 0
KCH1 070605Z 01005KT 05/01 A3029 RMK A01 T00520011  RH  075%=      5-min Rain = 0
KCH1 070606Z 03004KT 05/01 A3029 RMK A01 T00510012  RH  075%=      5-min Rain = 0
KCH1 070607Z 02006KT 05/01 A3029 RMK A01 T00510012  RH  076%=      5-min Rain = 0
KCH1 070608Z 03006KT 05/01 A3029 RMK A01 T00510012  RH  076%=      5-min Rain = 0
KCH1 070609Z 02007KT 05/01 A3029 RMK A01 T00520012  RH  076%=      5-min Rain = 0
KCH1 070610Z 03007KT 05/01 A3029 RMK A01 T00510012  RH  076%=      5-min Rain = 0
KCH1 070611Z 02006KT 05/01 A3029 RMK A01 T00510012  RH  076%=      5-min Rain = 0
KCH1 070612Z 04006KT 05/01 A3029 RMK A01 T00510012  RH  076%=      5-min Rain = 0
KCH1 070613Z 04007KT 05/01 A3028 RMK A01 T00510012  RH  076%=      5-min Rain = 0
KCH1 070614Z 04007KT 05/01 A3028 RMK A01 T00510012  RH  076%=      5-min Rain = 0
KCH1 070615Z 04006KT 05/01 A3028 RMK A01 T00510012  RH  076%=      5-min Rain = 0
KCH1 070616Z 03006KT 05/01 A3028 RMK A01 T00510013  RH  076%=      5-min Rain = 0
KCH1 070617Z 04005KT 05/01 A3028 RMK A01 T00510013  RH  076%=      5-min Rain = 0
KCH1 070618Z 03004KT 05/01 A3028 RMK A01 T00510013  RH  077%=      5-min Rain = 0
KCH1 070619Z 03006KT 05/01 A3028 RMK A01 T00500013  RH  077%=      5-min Rain = 0
KCH1 070620Z 04006KT 05/01 A3028 RMK A01 T00500013  RH  077%=      5-min Rain = 0
KCH1 070621Z 03008KT 05/01 A3028 RMK A01 T00500013  RH  077%=      5-min Rain = 0
KCH1 070622Z 03007KT 05/01 A3028 RMK A01 T00500013  RH  077%=      5-min Rain = 0
KCH1 070623Z 02008KT 05/01 A3028 RMK A01 T00500013  RH  077%=      5-min Rain = 0
KCH1 070624Z 02006KT 05/01 A3028 RMK A01 T00490013  RH  077%=      5-min Rain = 0
KCH1 070625Z 36007KT 05/01 A3028 RMK A01 T00490013  RH  078%=      5-min Rain = 0
KCH1 070626Z 35007KT 05/01 A3028 RMK A01 T00490013  RH  078%=      5-min Rain = 0
KCH1 070627Z 34006KT 05/01 A3028 RMK A01 T00490014  RH  078%=      5-min Rain = 0
KCH1 070628Z 36007KT 05/01 A3029 RMK A01 T00490014  RH  078%=      5-min Rain = 0
KCH1 070629Z 36008KT 05/01 A3028 RMK A01 T00490013  RH  078%=      5-min Rain = 0
KCH1 070630Z 01006KT 05/01 A3028 RMK A01 T00480013  RH  078%=      5-min Rain = 0
KCH1 070631Z 01006KT 05/01 A3028 RMK A01 T00480013  RH  078%=      5-min Rain = 0
KCH1 070632Z 01008KT 05/01 A3028 RMK A01 T00480013  RH  078%=      5-min Rain = 0
KCH1 070633Z 01007KT 05/01 A3028 RMK A01 T00480013  RH  078%=      5-min Rain = 0
KCH1 070634Z 02007KT 05/01 A3029 RMK A01 T00480013  RH  078%=      5-min Rain = 0
KCH1 070635Z 01009KT 05/01 A3029 RMK A01 T00480013  RH  078%=      5-min Rain = 0
KCH1 070636Z 01010KT 05/01 A3029 RMK A01 T00480013  RH  078%=      5-min Rain = 0
KCH1 070637Z 01008KT 05/01 A3029 RMK A01 T00480013  RH  078%=      5-min Rain = 0
KCH1 070638Z 01008KT 05/01 A3029 RMK A01 T00480013  RH  078%=      5-min Rain = 0
KCH1 070639Z 36006KT 05/01 A3029 RMK A01 T00480014  RH  078%=      5-min Rain = 0
KCH1 070640Z 00005KT 05/01 A3029 RMK A01 T00480014  RH  078%=      5-min Rain = 0
KCH1 070641Z 36009KT 05/01 A3029 RMK A01 T00480014  RH  078%=      5-min Rain = 0
KCH1 070642Z 01007KT 05/01 A3029 RMK A01 T00480013  RH  078%=      5-min Rain = 0
KCH1 070643Z 01009KT 05/01 A3029 RMK A01 T00480013  RH  078%=      5-min Rain = 0
KCH1 070644Z 02007KT 05/01 A3029 RMK A01 T00480013  RH  078%=      5-min Rain = 0
KCH1 070645Z 01008KT 05/01 A3028 RMK A01 T00480013  RH  078%=      5-min Rain = 0
KCH1 070646Z 01007KT 05/01 A3028 RMK A01 T00480013  RH  078%=      5-min Rain = 0
KCH1 070647Z 01007KT 05/01 A3028 RMK A01 T00480013  RH  078%=      5-min Rain = 0
KCH1 070648Z 01005KT 05/01 A3028 RMK A01 T00480013  RH  078%=      5-min Rain = 0
KCH1 070649Z 02004KT 05/01 A3028 RMK A01 T00480013  RH  078%=      5-min Rain = 0
KCH1 070650Z 02006KT 05/01 A3028 RMK A01 T00480013  RH  078%=      5-min Rain = 0
KCH1 070651Z 02007KT 05/01 A3028 RMK A01 T00480013  RH  078%=      5-min Rain = 0
KCH1 070652Z 01006KT 05/01 A3028 RMK A01 T00480013  RH  078%=      5-min Rain = 0
KCH1 070653Z 03005KT 05/01 A3028 RMK A01 T00480013  RH  078%=      5-min Rain = 0
KCH1 070654Z 03006KT 05/01 A3028 RMK A01 T00480013  RH  078%=      5-min Rain = 0
KCH1 070655Z 03005KT 05/01 A3028 RMK A01 T00480013  RH  078%=      5-min Rain = 0
KCH1 070656Z 02005KT 05/01 A3028 RMK A01 T00480013  RH  078%=      5-min Rain = 0
KCH1 070657Z 02008KT 05/01 A3028 RMK A01 T00480013  RH  078%=      5-min Rain = 0
KCH1 070658Z 02007KT 05/01 A3028 RMK A01 T00480013  RH  078%=      5-min Rain = 0
KCH1 070659Z 02008KT 05/01 A3028 RMK A01 T00470013  RH  078%=      5-min Rain = 0
KCH1 070700Z 02008KT 05/01 A3028 RMK A01 T00470013  RH  078%=      5-min Rain = 0
KCH1 070701Z 02007KT 05/01 A3028 RMK A01 T00470012  RH  078%=      5-min Rain = 0
KCH1 070702Z 02007KT 05/01 A3028 RMK A01 T00470013  RH  078%=      5-min Rain = 0
KCH1 070703Z 02008KT 05/01 A3028 RMK A01 T00480013  RH  078%=      5-min Rain = 0
KCH1 070704Z 01008KT 05/01 A3028 RMK A01 T00470012  RH  078%=      5-min Rain = 0
KCH1 070705Z 01008KT 05/01 A3028 RMK A01 T00470012  RH  078%=      5-min Rain = 0
KCH1 070706Z 00008KT 05/01 A3028 RMK A01 T00470012  RH  078%=      5-min Rain = 0
KCH1 070707Z 00007KT 05/01 A3028 RMK A01 T00470012  RH  078%=      5-min Rain = 0
KCH1 070708Z 00007KT 05/01 A3029 RMK A01 T00470012  RH  078%=      5-min Rain = 0
KCH1 070709Z 01008KT 05/01 A3029 RMK A01 T00470012  RH  078%=      5-min Rain = 0
KCH1 070710Z 01009KT 05/01 A3028 RMK A01 T00470012  RH  078%=      5-min Rain = 0
KCH1 070711Z 02008KT 05/01 A3028 RMK A01 T00470012  RH  078%=      5-min Rain = 0
KCH1 070712Z 01007KT 05/01 A3028 RMK A01 T00460012  RH  078%=      5-min Rain = 0
KCH1 070713Z 01007KT 05/01 A3028 RMK A01 T00460012  RH  078%=      5-min Rain = 0
KCH1 070714Z 01008KT 05/01 A3028 RMK A01 T00470012  RH  078%=      5-min Rain = 0
KCH1 070715Z 01009KT 05/01 A3028 RMK A01 T00460012  RH  078%=      5-min Rain = 0
KCH1 070716Z 00007KT 05/01 A3028 RMK A01 T00460012  RH  078%=      5-min Rain = 0
KCH1 070717Z 01009KT 05/01 A3028 RMK A01 T00460011  RH  078%=      5-min Rain = 0
KCH1 070718Z 01007KT 05/01 A3028 RMK A01 T00460011  RH  078%=      5-min Rain = 0
KCH1 070719Z 00008KT 05/01 A3028 RMK A01 T00460011  RH  078%=      5-min Rain = 0
KCH1 070720Z 01006KT 05/01 A3028 RMK A01 T00460011  RH  078%=      5-min Rain = 0
KCH1 070721Z 01007KT 05/01 A3028 RMK A01 T00460011  RH  078%=      5-min Rain = 0
KCH1 070722Z 02007KT 05/01 A3028 RMK A01 T00460011  RH  078%=      5-min Rain = 0
KCH1 070723Z 01007KT 05/01 A3028 RMK A01 T00460011  RH  078%=      5-min Rain = 0
KCH1 070724Z 00009KT 05/01 A3028 RMK A01 T00460011  RH  078%=      5-min Rain = 0
KCH1 070725Z 00009KT 05/01 A3028 RMK A01 T00460011  RH  078%=      5-min Rain = 0
KCH1 070726Z 01007KT 05/01 A3028 RMK A01 T00460011  RH  078%=      5-min Rain = 0
KCH1 070727Z 01008KT 05/01 A3028 RMK A01 T00460011  RH  078%=      5-min Rain = 0
KCH1 070728Z 01011KT 05/01 A3028 RMK A01 T00460011  RH  078%=      5-min Rain = 0
KCH1 070729Z 01010KT 05/01 A3028 RMK A01 T00460011  RH  079%=      5-min Rain = 0
KCH1 070730Z 01009KT 05/01 A3028 RMK A01 T00460012  RH  079%=      5-min Rain = 0
KCH1 070731Z 02005KT 05/01 A3028 RMK A01 T00450011  RH  079%=      5-min Rain = 0
KCH1 070732Z 02006KT 05/01 A3028 RMK A01 T00450012  RH  079%=      5-min Rain = 0
KCH1 070733Z 02006KT 05/01 A3028 RMK A01 T00450012  RH  079%=      5-min Rain = 0
KCH1 070734Z 01006KT 05/01 A3029 RMK A01 T00450011  RH  079%=      5-min Rain = 0
KCH1 070735Z 02008KT 05/01 A3029 RMK A01 T00450011  RH  079%=      5-min Rain = 0
KCH1 070736Z 01008KT 05/01 A3028 RMK A01 T00450011  RH  079%=      5-min Rain = 0
KCH1 070737Z 02006KT 05/01 A3028 RMK A01 T00450011  RH  079%=      5-min Rain = 0
KCH1 070738Z 02007KT 05/01 A3028 RMK A01 T00450011  RH  079%=      5-min Rain = 0
KCH1 070739Z 02007KT 05/01 A3028 RMK A01 T00450011  RH  079%=      5-min Rain = 0
KCH1 070740Z 03008KT 05/01 A3028 RMK A01 T00450011  RH  079%=      5-min Rain = 0
KCH1 070741Z 03008KT 05/01 A3028 RMK A01 T00450012  RH  079%=      5-min Rain = 0
KCH1 070742Z 03008KT 05/01 A3028 RMK A01 T00450012  RH  079%=      5-min Rain = 0
KCH1 070743Z 02006KT 05/01 A3028 RMK A01 T00450012  RH  079%=      5-min Rain = 0
KCH1 070744Z 01007KT 04/01 A3028 RMK A01 T00440013  RH  080%=      5-min Rain = 0
KCH1 070745Z 01007KT 04/01 A3028 RMK A01 T00440012  RH  080%=      5-min Rain = 0
KCH1 070746Z 01006KT 04/01 A3028 RMK A01 T00440012  RH  080%=      5-min Rain = 0
KCH1 070747Z 01007KT 04/01 A3028 RMK A01 T00440013  RH  080%=      5-min Rain = 0
KCH1 070748Z 01006KT 04/01 A3028 RMK A01 T00440012  RH  080%=      5-min Rain = 0
KCH1 070749Z 01005KT 04/01 A3029 RMK A01 T00440013  RH  080%=      5-min Rain = 0
KCH1 070750Z 01005KT 04/01 A3029 RMK A01 T00440013  RH  080%=      5-min Rain = 0
KCH1 070751Z 00006KT 04/01 A3029 RMK A01 T00440013  RH  080%=      5-min Rain = 0
KCH1 070752Z 02006KT 04/01 A3029 RMK A01 T00440013  RH  080%=      5-min Rain = 0
KCH1 070753Z 01008KT 04/01 A3029 RMK A01 T00440013  RH  081%=      5-min Rain = 0
KCH1 070754Z 01008KT 04/01 A3028 RMK A01 T00440013  RH  081%=      5-min Rain = 0
KCH1 070755Z 03007KT 04/01 A3028 RMK A01 T00430013  RH  081%=      5-min Rain = 0
KCH1 070756Z 02007KT 04/01 A3028 RMK A01 T00430014  RH  081%=      5-min Rain = 0
KCH1 070757Z 03008KT 04/01 A3028 RMK A01 T00430014  RH  081%=      5-min Rain = 0
KCH1 070758Z 03008KT 04/01 A3028 RMK A01 T00430014  RH  081%=      5-min Rain = 0
KCH1 070759Z 04008KT 04/01 A3028 RMK A01 T00430014  RH  081%=      5-min Rain = 0
KCH1 070800Z 03008KT 04/01 A3028 RMK A01 T00430014  RH  082%=      5-min Rain = 0
KCH1 070801Z 03007KT 04/02 A3028 RMK A01 T00430015  RH  082%=      5-min Rain = 0
KCH1 070802Z 02008KT 04/02 A3028 RMK A01 T00430015  RH  082%=      5-min Rain = 0
KCH1 070803Z 02006KT 04/01 A3028 RMK A01 T00430014  RH  082%=      5-min Rain = 0
KCH1 070804Z 01006KT 04/01 A3028 RMK A01 T00430014  RH  082%=      5-min Rain = 0
KCH1 070805Z 01008KT 04/01 A3028 RMK A01 T00420014  RH  082%=      5-min Rain = 0
KCH1 070806Z 02007KT 04/01 A3028 RMK A01 T00420014  RH  082%=      5-min Rain = 0
KCH1 070807Z 02006KT 04/01 A3029 RMK A01 T00420014  RH  082%=      5-min Rain = 0
KCH1 070808Z 01007KT 04/01 A3029 RMK A01 T00420014  RH  082%=      5-min Rain = 0
KCH1 070809Z 01006KT 04/01 A3029 RMK A01 T00420014  RH  082%=      5-min Rain = 0
KCH1 070810Z 02004KT 04/01 A3029 RMK A01 T00420014  RH  082%=      5-min Rain = 0
KCH1 070811Z 03007KT 04/01 A3029 RMK A01 T00420014  RH  082%=      5-min Rain = 0
KCH1 070812Z 02007KT 04/01 A3029 RMK A01 T00420014  RH  082%=      5-min Rain = 0
KCH1 070813Z 01008KT 04/01 A3029 RMK A01 T00420014  RH  082%=      5-min Rain = 0
KCH1 070814Z 02007KT 04/01 A3028 RMK A01 T00420014  RH  082%=      5-min Rain = 0
KCH1 070815Z 03008KT 04/01 A3028 RMK A01 T00420014  RH  082%=      5-min Rain = 0
KCH1 070816Z 03008KT 04/01 A3028 RMK A01 T00420014  RH  082%=      5-min Rain = 0
KCH1 070817Z 02006KT 04/01 A3028 RMK A01 T00420014  RH  082%=      5-min Rain = 0
KCH1 070818Z 02007KT 04/01 A3028 RMK A01 T00420014  RH  082%=      5-min Rain = 0
KCH1 070819Z 02007KT 04/01 A3028 RMK A01 T00420014  RH  082%=      5-min Rain = 0
KCH1 070820Z 02006KT 04/01 A3028 RMK A01 T00420014  RH  082%=      5-min Rain = 0
KCH1 070821Z 02008KT 04/01 A3028 RMK A01 T00420013  RH  082%=      5-min Rain = 0
KCH1 070822Z 02008KT 04/01 A3028 RMK A01 T00420013  RH  082%=      5-min Rain = 0
KCH1 070823Z 01009KT 04/01 A3028 RMK A01 T00410013  RH  082%=      5-min Rain = 0
KCH1 070824Z 01008KT 04/01 A3028 RMK A01 T00410012  RH  082%=      5-min Rain = 0
KCH1 070825Z 35007KT 04/01 A3028 RMK A01 T00410012  RH  082%=      5-min Rain = 0
KCH1 070826Z 01005KT 04/01 A3028 RMK A01 T00410012  RH  082%=      5-min Rain = 0
KCH1 070827Z 01006KT 04/01 A3028 RMK A01 T00410013  RH  082%=      5-min Rain = 0
KCH1 070828Z 01009KT 04/01 A3028 RMK A01 T00410013  RH  082%=      5-min Rain = 0
KCH1 070829Z 00010KT 04/01 A3028 RMK A01 T00410012  RH  082%=      5-min Rain = 0
KCH1 070830Z 00008KT 04/01 A3028 RMK A01 T00410012  RH  082%=      5-min Rain = 0
KCH1 070831Z 00007KT 04/01 A3028 RMK A01 T00400012  RH  082%=      5-min Rain = 0
KCH1 070832Z 01006KT 04/01 A3028 RMK A01 T00410012  RH  082%=      5-min Rain = 0
KCH1 070833Z 02007KT 04/01 A3029 RMK A01 T00400012  RH  082%=      5-min Rain = 0
KCH1 070834Z 02006KT 04/01 A3029 RMK A01 T00410012  RH  082%=      5-min Rain = 0
KCH1 070835Z 02007KT 04/01 A3029 RMK A01 T00410012  RH  082%=      5-min Rain = 0
KCH1 070836Z 03008KT 04/01 A3028 RMK A01 T00400012  RH  082%=      5-min Rain = 0
KCH1 070837Z 02008KT 04/01 A3028 RMK A01 T00400011  RH  082%=      5-min Rain = 0
KCH1 070838Z 02007KT 04/01 A3028 RMK A01 T00400011  RH  082%=      5-min Rain = 0
KCH1 070839Z 02006KT 04/01 A3028 RMK A01 T00400011  RH  082%=      5-min Rain = 0
KCH1 070840Z 03006KT 04/01 A3028 RMK A01 T00400011  RH  082%=      5-min Rain = 0
KCH1 070841Z 03007KT 04/01 A3028 RMK A01 T00390011  RH  082%=      5-min Rain = 0
KCH1 070842Z 01007KT 04/01 A3028 RMK A01 T00400012  RH  082%=      5-min Rain = 0
KCH1 070843Z 01009KT 04/01 A3028 RMK A01 T00390012  RH  082%=      5-min Rain = 0
KCH1 070844Z 02006KT 04/01 A3028 RMK A01 T00400012  RH  082%=      5-min Rain = 0
KCH1 070845Z 02008KT 04/01 A3028 RMK A01 T00400012  RH  082%=      5-min Rain = 0
KCH1 070846Z 02008KT 04/01 A3028 RMK A01 T00400012  RH  082%=      5-min Rain = 0
KCH1 070847Z 02008KT 04/01 A3028 RMK A01 T00390011  RH  082%=      5-min Rain = 0
KCH1 070848Z 02007KT 04/01 A3028 RMK A01 T00390011  RH  082%=      5-min Rain = 0
KCH1 070849Z 02007KT 04/01 A3028 RMK A01 T00390011  RH  082%=      5-min Rain = 0
KCH1 070850Z 03007KT 04/01 A3028 RMK A01 T00390011  RH  082%=      5-min Rain = 0
KCH1 070851Z 02005KT 04/01 A3029 RMK A01 T00390011  RH  082%=      5-min Rain = 0
KCH1 070852Z 02005KT 04/01 A3029 RMK A01 T00390011  RH  082%=      5-min Rain = 0
KCH1 070853Z 02006KT 04/01 A3029 RMK A01 T00390011  RH  082%=      5-min Rain = 0
KCH1 070854Z 02005KT 04/01 A3029 RMK A01 T00390011  RH  082%=      5-min Rain = 0
KCH1 070855Z 02004KT 04/01 A3029 RMK A01 T00390011  RH  082%=      5-min Rain = 0
KCH1 070856Z 01005KT 04/01 A3028 RMK A01 T00390011  RH  082%=      5-min Rain = 0
KCH1 070857Z 01007KT 04/01 A3028 RMK A01 T00390011  RH  082%=      5-min Rain = 0
KCH1 070858Z 01006KT 04/01 A3028 RMK A01 T00390011  RH  082%=      5-min Rain = 0
KCH1 070859Z 00004KT 04/01 A3028 RMK A01 T00390011  RH  082%=      5-min Rain = 0
KCH1 070900Z 36007KT 04/01 A3029 RMK A01 T00390011  RH  082%=      5-min Rain = 0
KCH1 070901Z 01008KT 04/01 A3029 RMK A01 T00390011  RH  082%=      5-min Rain = 0
KCH1 070902Z 01006KT 04/01 A3029 RMK A01 T00390012  RH  082%=      5-min Rain = 0
KCH1 070903Z 01006KT 04/01 A3029 RMK A01 T00390012  RH  082%=      5-min Rain = 0
KCH1 070904Z 02006KT 04/01 A3029 RMK A01 T00390011  RH  083%=      5-min Rain = 0
KCH1 070905Z 01006KT 04/01 A3029 RMK A01 T00390011  RH  082%=      5-min Rain = 0
KCH1 070906Z 02007KT 04/01 A3029 RMK A01 T00390012  RH  083%=      5-min Rain = 0
KCH1 070907Z 01007KT 04/01 A3028 RMK A01 T00390012  RH  083%=      5-min Rain = 0
KCH1 070908Z 01005KT 04/01 A3028 RMK A01 T00390012  RH  083%=      5-min Rain = 0
KCH1 070909Z 00006KT 04/01 A3028 RMK A01 T00390012  RH  083%=      5-min Rain = 0
KCH1 070910Z 02005KT 04/01 A3028 RMK A01 T00390012  RH  083%=      5-min Rain = 0
KCH1 070911Z 01006KT 04/01 A3028 RMK A01 T00390012  RH  083%=      5-min Rain = 0
KCH1 070912Z 02004KT 04/01 A3028 RMK A01 T00390012  RH  083%=      5-min Rain = 0
KCH1 070913Z 01006KT 04/01 A3028 RMK A01 T00390012  RH  083%=      5-min Rain = 0
KCH1 070914Z 02005KT 04/01 A3028 RMK A01 T00390012  RH  083%=      5-min Rain = 0
KCH1 070915Z 01006KT 04/01 A3028 RMK A01 T00390012  RH  083%=      5-min Rain = 0
KCH1 070916Z 01008KT 04/01 A3028 RMK A01 T00390012  RH  083%=      5-min Rain = 0
KCH1 070917Z 01008KT 04/01 A3028 RMK A01 T00380011  RH  082%=      5-min Rain = 0
KCH1 070918Z 01005KT 04/01 A3028 RMK A01 T00380011  RH  083%=      5-min Rain = 0
KCH1 070919Z 02006KT 04/01 A3028 RMK A01 T00380012  RH  083%=      5-min Rain = 0
KCH1 070920Z 01007KT 04/01 A3028 RMK A01 T00380012  RH  083%=      5-min Rain = 0
KCH1 070921Z 01005KT 04/01 A3028 RMK A01 T00380012  RH  083%=      5-min Rain = 0
KCH1 070922Z 00007KT 04/01 A3028 RMK A01 T00380011  RH  083%=      5-min Rain = 0
KCH1 070923Z 01005KT 04/01 A3028 RMK A01 T00380011  RH  083%=      5-min Rain = 0
KCH1 070924Z 01004KT 04/01 A3028 RMK A01 T00380012  RH  083%=      5-min Rain = 0
KCH1 070925Z 01005KT 04/01 A3028 RMK A01 T00380012  RH  083%=      5-min Rain = 0
KCH1 070926Z 01004KT 04/01 A3028 RMK A01 T00380012  RH  083%=      5-min Rain = 0
KCH1 070927Z 01002KT 04/01 A3028 RMK A01 T00380012  RH  083%=      5-min Rain = 0
KCH1 070928Z 01004KT 04/01 A3028 RMK A01 T00380012  RH  083%=      5-min Rain = 0
KCH1 070929Z 01005KT 04/01 A3028 RMK A01 T00390012  RH  083%=      5-min Rain = 0
KCH1 070930Z 02005KT 04/01 A3028 RMK A01 T00390012  RH  083%=      5-min Rain = 0
KCH1 070931Z 00005KT 04/01 A3028 RMK A01 T00390012  RH  083%=      5-min Rain = 0
KCH1 070932Z 00007KT 04/01 A3029 RMK A01 T00390012  RH  083%=      5-min Rain = 0
KCH1 070933Z 36009KT 04/01 A3029 RMK A01 T00390012  RH  083%=      5-min Rain = 0
KCH1 070934Z 36006KT 04/01 A3029 RMK A01 T00380011  RH  082%=      5-min Rain = 0
KCH1 070935Z 00006KT 04/01 A3028 RMK A01 T00380011  RH  083%=      5-min Rain = 0
KCH1 070936Z 02006KT 04/01 A3028 RMK A01 T00380012  RH  083%=      5-min Rain = 0
KCH1 070937Z 02004KT 04/01 A3028 RMK A01 T00380012  RH  083%=      5-min Rain = 0
KCH1 070938Z 02004KT 04/01 A3028 RMK A01 T00380012  RH  083%=      5-min Rain = 0
KCH1 070939Z 01006KT 04/01 A3028 RMK A01 T00380012  RH  083%=      5-min Rain = 0
KCH1 070940Z 01004KT 04/01 A3029 RMK A01 T00390012  RH  083%=      5-min Rain = 0
KCH1 070941Z 00004KT 04/01 A3029 RMK A01 T00380011  RH  083%=      5-min Rain = 0
KCH1 070942Z 36004KT 04/01 A3029 RMK A01 T00380011  RH  083%=      5-min Rain = 0
KCH1 070943Z 02003KT 04/01 A3029 RMK A01 T00380012  RH  083%=      5-min Rain = 0
KCH1 070944Z 01004KT 04/01 A3029 RMK A01 T00390012  RH  083%=      5-min Rain = 0
KCH1 070945Z 01005KT 04/01 A3029 RMK A01 T00390012  RH  083%=      5-min Rain = 0
KCH1 070946Z 36008KT 04/01 A3029 RMK A01 T00390012  RH  083%=      5-min Rain = 0
KCH1 070947Z 01007KT 04/01 A3029 RMK A01 T00390012  RH  082%=      5-min Rain = 0
KCH1 070948Z 01007KT 04/01 A3029 RMK A01 T00390012  RH  082%=      5-min Rain = 0
KCH1 070949Z 01006KT 04/01 A3029 RMK A01 T00390012  RH  083%=      5-min Rain = 0
KCH1 070950Z 00006KT 04/01 A3029 RMK A01 T00390012  RH  083%=      5-min Rain = 0
KCH1 070951Z 00005KT 04/01 A303 RMK A01 T00390012  RH  082%=      5-min Rain = 0
KCH1 070952Z 35006KT 04/01 A303 RMK A01 T00390012  RH  083%=      5-min Rain = 0
KCH1 070953Z 35006KT 04/01 A303 RMK A01 T00390012  RH  083%=      5-min Rain = 0
KCH1 070954Z 34007KT 04/01 A303 RMK A01 T00390012  RH  083%=      5-min Rain = 0
KCH1 070955Z 34005KT 04/01 A303 RMK A01 T00390012  RH  083%=      5-min Rain = 0
KCH1 070956Z 35005KT 04/01 A303 RMK A01 T00390012  RH  083%=      5-min Rain = 0
KCH1 070957Z 34005KT 04/01 A303 RMK A01 T00390012  RH  082%=      5-min Rain = 0
KCH1 070958Z 35005KT 04/01 A303 RMK A01 T00390012  RH  083%=      5-min Rain = 0
KCH1 070959Z 00005KT 04/01 A303 RMK A01 T00390013  RH  083%=      5-min Rain = 0
KCH1 071000Z 35006KT 04/01 A303 RMK A01 T00390013  RH  083%=      5-min Rain = 0
KCH1 071001Z 34006KT 04/01 A303 RMK A01 T00390013  RH  083%=      5-min Rain = 0
KCH1 071002Z 35007KT 04/01 A303 RMK A01 T00390013  RH  083%=      5-min Rain = 0
KCH1 071003Z 35007KT 04/01 A303 RMK A01 T00390013  RH  083%=      5-min Rain = 0
KCH1 071004Z 36006KT 04/01 A3031 RMK A01 T00390012  RH  083%=      5-min Rain = 0
KCH1 071005Z 35007KT 04/01 A303 RMK A01 T00390013  RH  083%=      5-min Rain = 0
KCH1 071006Z 35006KT 04/01 A303 RMK A01 T00390013  RH  083%=      5-min Rain = 0
KCH1 071007Z 35006KT 04/01 A303 RMK A01 T00390013  RH  083%=      5-min Rain = 0
KCH1 071008Z 35008KT 04/01 A303 RMK A01 T00390013  RH  083%=      5-min Rain = 0
KCH1 071009Z 00006KT 04/01 A303 RMK A01 T00390013  RH  083%=      5-min Rain = 0
KCH1 071010Z 00005KT 04/01 A303 RMK A01 T00380013  RH  084%=      5-min Rain = 0
KCH1 071011Z 01006KT 04/01 A303 RMK A01 T00380014  RH  084%=      5-min Rain = 0
KCH1 071012Z 00004KT 04/01 A303 RMK A01 T00380014  RH  084%=      5-min Rain = 0
KCH1 071013Z 35004KT 04/02 A303 RMK A01 T00380015  RH  085%=      5-min Rain = 0
KCH1 071014Z 35005KT 04/02 A303 RMK A01 T00380015  RH  085%=      5-min Rain = 0
KCH1 071015Z 34005KT 04/02 A303 RMK A01 T00380016  RH  086%=      5-min Rain = 0
KCH1 071016Z 33006KT 04/02 A303 RMK A01 T00370017  RH  087%=      5-min Rain = 0
KCH1 071017Z 34006KT 04/02 A303 RMK A01 T00360018  RH  088%=      5-min Rain = 0
KCH1 071018Z 35007KT 04/02 A303 RMK A01 T00360019  RH  089%=      5-min Rain = 0
KCH1 071019Z 35007KT 04/02 A303 RMK A01 T00350019  RH  089%=      5-min Rain = 0
KCH1 071020Z 35005KT 03/02 A303 RMK A01 T00340019  RH  090%=      5-min Rain = 0
KCH1 071021Z 36006KT 03/02 A303 RMK A01 T00340020  RH  090%=      5-min Rain = 0
KCH1 071022Z 34004KT 03/02 A303 RMK A01 T00340020  RH  091%=      5-min Rain = 0
KCH1 071023Z 35004KT 03/02 A303 RMK A01 T00340021  RH  091%=      5-min Rain = 0
KCH1 071024Z 34004KT 03/02 A303 RMK A01 T00330021  RH  092%=      5-min Rain = 0
KCH1 071025Z 35006KT 03/02 A303 RMK A01 T00330022  RH  093%=      5-min Rain = 0
KCH1 071026Z 34006KT 03/02 A303 RMK A01 T00330022  RH  093%=      5-min Rain = 0
KCH1 071027Z 34005KT 03/02 A303 RMK A01 T00330023  RH  093%=      5-min Rain = 0
KCH1 071028Z 34006KT 03/02 A303 RMK A01 T00320023  RH  094%=      5-min Rain = 0
KCH1 071029Z 35005KT 03/02 A303 RMK A01 T00320023  RH  094%=      5-min Rain = 0
KCH1 071030Z 34007KT 03/02 A303 RMK A01 T00320023  RH  094%=      5-min Rain = 0
KCH1 071031Z 35005KT 03/02 A303 RMK A01 T00310023  RH  094%=      5-min Rain = 0
KCH1 071032Z 35004KT 03/02 A303 RMK A01 T00310024  RH  095%=      5-min Rain = 0
KCH1 071033Z 35004KT 03/02 A303 RMK A01 T00320024  RH  095%=      5-min Rain = 0
KCH1 071034Z 35006KT 03/03 A303 RMK A01 T00320025  RH  095%=      5-min Rain = 0
KCH1 071035Z 36007KT 03/03 A303 RMK A01 T00310025  RH  095%=      5-min Rain = 0
KCH1 071036Z 36006KT 03/02 A303 RMK A01 T00310024  RH  095%=      5-min Rain = 0
KCH1 071037Z 35007KT 03/02 A3029 RMK A01 T00300023  RH  095%=      5-min Rain = 0
KCH1 071038Z 35005KT 03/02 A3029 RMK A01 T00300023  RH  096%=      5-min Rain = 0
KCH1 071039Z 00005KT 03/02 A3029 RMK A01 T00300024  RH  096%=      5-min Rain = 0
KCH1 071040Z 36006KT 03/02 A3029 RMK A01 T00300024  RH  096%=      5-min Rain = 0
KCH1 071041Z 36005KT 03/02 A3029 RMK A01 T00300024  RH  096%=      5-min Rain = 0
KCH1 071042Z 00004KT 03/03 A3029 RMK A01 T00300025  RH  096%=      5-min Rain = 0
KCH1 071043Z 00005KT 03/03 A3029 RMK A01 T00300025  RH  096%=      5-min Rain = 0
KCH1 071044Z 01006KT 03/03 A3029 RMK A01 T00300025  RH  096%=      5-min Rain = 0
KCH1 071045Z 01006KT 03/03 A3029 RMK A01 T00300025  RH  097%=      5-min Rain = 0
KCH1 071046Z 00005KT 03/03 A3029 RMK A01 T00300025  RH  097%=      5-min Rain = 0
KCH1 071047Z 35005KT 03/02 A3029 RMK A01 T00290024  RH  097%=      5-min Rain = 0
KCH1 071048Z 36005KT 03/02 A3029 RMK A01 T00290024  RH  097%=      5-min Rain = 0
KCH1 071049Z 35005KT 03/02 A3029 RMK A01 T00290024  RH  097%=      5-min Rain = 0
KCH1 071050Z 35004KT 03/03 A3029 RMK A01 T00290025  RH  097%=      5-min Rain = 0
KCH1 071051Z 00004KT 03/03 A3029 RMK A01 T00290025  RH  097%=      5-min Rain = 0
KCH1 071052Z 36005KT 03/03 A3029 RMK A01 T00290025  RH  097%=      5-min Rain = 0
KCH1 071053Z 35006KT 03/03 A303 RMK A01 T00290025  RH  097%=      5-min Rain = 0
KCH1 071054Z 36006KT 03/03 A303 RMK A01 T00290025  RH  097%=      5-min Rain = 0
KCH1 071055Z 35005KT 03/02 A303 RMK A01 T00290024  RH  097%=      5-min Rain = 0
KCH1 071056Z 35005KT 03/03 A303 RMK A01 T00290025  RH  097%=      5-min Rain = 0
KCH1 071057Z 35004KT 03/03 A303 RMK A01 T00290025  RH  097%=      5-min Rain = 0
KCH1 071058Z 35004KT 03/03 A303 RMK A01 T00290025  RH  097%=      5-min Rain = 0
KCH1 071059Z 00003KT 03/03 A303 RMK A01 T00290025  RH  097%=      5-min Rain = 0
KCH1 071100Z 35004KT 03/03 A303 RMK A01 T00290025  RH  098%=      5-min Rain = 0
KCH1 071101Z 34004KT 03/03 A303 RMK A01 T00290025  RH  098%=      5-min Rain = 0
KCH1 071102Z 34004KT 03/03 A303 RMK A01 T00280025  RH  098%=      5-min Rain = 0
KCH1 071103Z 36003KT 03/03 A303 RMK A01 T00280025  RH  098%=      5-min Rain = 0
KCH1 071104Z 00005KT 03/03 A303 RMK A01 T00280025  RH  098%=      5-min Rain = 0
KCH1 071105Z 00006KT 03/03 A303 RMK A01 T00280025  RH  098%=      5-min Rain = 0
KCH1 071106Z 36007KT 03/02 A303 RMK A01 T00280024  RH  098%=      5-min Rain = 0
KCH1 071107Z 36006KT 03/02 A303 RMK A01 T00270024  RH  098%=      5-min Rain = 0
KCH1 071108Z 36007KT 03/02 A303 RMK A01 T00270024  RH  098%=      5-min Rain = 0
KCH1 071109Z 00005KT 03/02 A303 RMK A01 T00270023  RH  097%=      5-min Rain = 0
KCH1 071110Z 00005KT 03/02 A303 RMK A01 T00270023  RH  097%=      5-min Rain = 0
KCH1 071111Z 01007KT 03/02 A303 RMK A01 T00270023  RH  098%=      5-min Rain = 0
KCH1 071112Z 02006KT 03/02 A303 RMK A01 T00270024  RH  098%=      5-min Rain = 0
KCH1 071113Z 01008KT 03/02 A303 RMK A01 T00270023  RH  097%=      5-min Rain = 0
KCH1 071114Z 01007KT 03/02 A303 RMK A01 T00270023  RH  097%=      5-min Rain = 0
KCH1 071115Z 01006KT 03/02 A3029 RMK A01 T00270023  RH  097%=      5-min Rain = 0
KCH1 071116Z 02005KT 03/02 A3029 RMK A01 T00270023  RH  097%=      5-min Rain = 0
KCH1 071117Z 02006KT 03/02 A3029 RMK A01 T00270023  RH  097%=      5-min Rain = 0
KCH1 071118Z 01006KT 03/02 A303 RMK A01 T00270023  RH  097%=      5-min Rain = 0
KCH1 071119Z 02006KT 03/02 A303 RMK A01 T00270023  RH  097%=      5-min Rain = 0
KCH1 071120Z 01005KT 03/02 A303 RMK A01 T00270022  RH  097%=      5-min Rain = 0
KCH1 071121Z 02004KT 03/02 A303 RMK A01 T00270022  RH  097%=      5-min Rain = 0
KCH1 071122Z 36003KT 03/02 A303 RMK A01 T00270023  RH  097%=      5-min Rain = 0
KCH1 071123Z 36003KT 03/02 A303 RMK A01 T00270023  RH  097%=      5-min Rain = 0
KCH1 071124Z 35005KT 03/02 A303 RMK A01 T00270023  RH  097%=      5-min Rain = 0
KCH1 071125Z 01005KT 03/02 A303 RMK A01 T00270023  RH  097%=      5-min Rain = 0
KCH1 071126Z 01007KT 03/02 A303 RMK A01 T00270023  RH  097%=      5-min Rain = 0
KCH1 071127Z 01006KT 03/02 A303 RMK A01 T00270022  RH  097%=      5-min Rain = 0
KCH1 071128Z 01006KT 03/02 A303 RMK A01 T00270022  RH  097%=      5-min Rain = 0
KCH1 071129Z 01008KT 03/02 A303 RMK A01 T00270022  RH  097%=      5-min Rain = 0
KCH1 071130Z 02008KT 03/02 A303 RMK A01 T00270022  RH  096%=      5-min Rain = 0
KCH1 071131Z 01007KT 03/02 A303 RMK A01 T00270022  RH  096%=      5-min Rain = 0
KCH1 071132Z 01009KT 03/02 A303 RMK A01 T00270021  RH  096%=      5-min Rain = 0
KCH1 071133Z 00008KT 03/02 A303 RMK A01 T00270020  RH  095%=      5-min Rain = 0
KCH1 071134Z 00006KT 03/02 A303 RMK A01 T00270020  RH  095%=      5-min Rain = 0
KCH1 071135Z 00005KT 03/02 A303 RMK A01 T00270020  RH  095%=      5-min Rain = 0
KCH1 071136Z 00008KT 03/02 A303 RMK A01 T00270020  RH  095%=      5-min Rain = 0
KCH1 071137Z 00007KT 03/02 A303 RMK A01 T00270020  RH  095%=      5-min Rain = 0
KCH1 071138Z 36007KT 03/02 A303 RMK A01 T00270020  RH  095%=      5-min Rain = 0
KCH1 071139Z 01005KT 03/02 A303 RMK A01 T00270020  RH  095%=      5-min Rain = 0
KCH1 071140Z 36007KT 03/02 A303 RMK A01 T00270020  RH  095%=      5-min Rain = 0
KCH1 071141Z 35007KT 03/02 A303 RMK A01 T00270020  RH  095%=      5-min Rain = 0
KCH1 071142Z 35006KT 03/02 A303 RMK A01 T00270020  RH  095%=      5-min Rain = 0
KCH1 071143Z 35006KT 03/02 A3031 RMK A01 T00270020  RH  095%=      5-min Rain = 0
KCH1 071144Z 35007KT 03/02 A3031 RMK A01 T00270020  RH  095%=      5-min Rain = 0
KCH1 071145Z 00007KT 03/02 A3031 RMK A01 T00270020  RH  095%=      5-min Rain = 0
KCH1 071146Z 36006KT 03/02 A3031 RMK A01 T00270020  RH  095%=      5-min Rain = 0
KCH1 071147Z 01005KT 03/02 A3031 RMK A01 T00270020  RH  095%=      5-min Rain = 0
KCH1 071148Z 36005KT 03/02 A3031 RMK A01 T00270020  RH  095%=      5-min Rain = 0
KCH1 071149Z 36005KT 03/02 A3031 RMK A01 T00270020  RH  095%=      5-min Rain = 0
KCH1 071150Z 35005KT 03/02 A3031 RMK A01 T00270020  RH  095%=      5-min Rain = 0
KCH1 071151Z 36004KT 03/02 A3031 RMK A01 T00270020  RH  095%=      5-min Rain = 0
KCH1 071152Z 35006KT 03/02 A3031 RMK A01 T00270020  RH  095%=      5-min Rain = 0
KCH1 071153Z 00006KT 03/02 A3031 RMK A01 T00270020  RH  095%=      5-min Rain = 0
KCH1 071154Z 36008KT 03/02 A3031 RMK A01 T00270020  RH  095%=      5-min Rain = 0
KCH1 071155Z 01006KT 03/02 A3031 RMK A01 T00270019  RH  095%=      5-min Rain = 0
KCH1 071156Z 01005KT 03/02 A3031 RMK A01 T00270019  RH  095%=      5-min Rain = 0
KCH1 071157Z 01005KT 03/02 A3031 RMK A01 T00270019  RH  095%=      5-min Rain = 0
KCH1 071158Z 01008KT 03/02 A3031 RMK A01 T00270019  RH  095%=      5-min Rain = 0
KCH1 071159Z 01006KT 03/02 A3031 RMK A01 T00270019  RH  095%=      5-min Rain = 0
KCH1 071200Z 35006KT 03/02 A3031 RMK A01 T00270019  RH  094%=      5-min Rain = 0
KCH1 071201Z 00007KT 03/02 A3031 RMK A01 T00270019  RH  094%=      5-min Rain = 0
KCH1 071202Z 01007KT 03/02 A3031 RMK A01 T00270019  RH  094%=      5-min Rain = 0
KCH1 071203Z 00007KT 03/02 A3031 RMK A01 T00270018  RH  094%=      5-min Rain = 0
KCH1 071204Z 00006KT 03/02 A3031 RMK A01 T00270018  RH  094%=      5-min Rain = 0
KCH1 071205Z 35006KT 03/02 A3031 RMK A01 T00270018  RH  094%=      5-min Rain = 0
KCH1 071206Z 36006KT 03/02 A3031 RMK A01 T00270018  RH  094%=      5-min Rain = 0
KCH1 071207Z 00006KT 03/02 A3031 RMK A01 T00270018  RH  094%=      5-min Rain = 0
KCH1 071208Z 36006KT 03/02 A3031 RMK A01 T00270018  RH  093%=      5-min Rain = 0
KCH1 071209Z 36006KT 03/02 A3031 RMK A01 T00270017  RH  093%=      5-min Rain = 0
KCH1 071210Z 01007KT 03/02 A3031 RMK A01 T00270017  RH  093%=      5-min Rain = 0
KCH1 071211Z 02007KT 03/02 A3031 RMK A01 T00270017  RH  093%=      5-min Rain = 0
KCH1 071212Z 01006KT 03/02 A3031 RMK A01 T00270017  RH  093%=      5-min Rain = 0
KCH1 071213Z 01003KT 03/02 A3031 RMK A01 T00270017  RH  093%=      5-min Rain = 0
KCH1 071214Z 35005KT 03/02 A3031 RMK A01 T00270016  RH  093%=      5-min Rain = 0
KCH1 071215Z 00005KT 03/02 A3031 RMK A01 T00270016  RH  093%=      5-min Rain = 0
KCH1 071216Z 36006KT 03/02 A3031 RMK A01 T00270016  RH  093%=      5-min Rain = 0
KCH1 071217Z 35005KT 03/02 A3031 RMK A01 T00270017  RH  093%=      5-min Rain = 0
KCH1 071218Z 35004KT 03/02 A3031 RMK A01 T00270016  RH  093%=      5-min Rain = 0
KCH1 071219Z 35005KT 03/02 A303 RMK A01 T00270017  RH  093%=      5-min Rain = 0
KCH1 071220Z 36005KT 03/02 A303 RMK A01 T00270017  RH  093%=      5-min Rain = 0
KCH1 071221Z 00004KT 03/02 A303 RMK A01 T00270018  RH  093%=      5-min Rain = 0
KCH1 071222Z 00005KT 03/02 A303 RMK A01 T00270018  RH  093%=      5-min Rain = 0
KCH1 071223Z 01004KT 03/02 A303 RMK A01 T00270018  RH  093%=      5-min Rain = 0
KCH1 071224Z 36004KT 03/02 A303 RMK A01 T00270018  RH  093%=      5-min Rain = 0
KCH1 071225Z 01004KT 03/02 A303 RMK A01 T00270018  RH  094%=      5-min Rain = 0
KCH1 071226Z 01004KT 03/02 A303 RMK A01 T00270018  RH  094%=      5-min Rain = 0
KCH1 071227Z 01006KT 03/02 A303 RMK A01 T00270018  RH  094%=      5-min Rain = 0
KCH1 071228Z 01006KT 03/02 A303 RMK A01 T00270018  RH  094%=      5-min Rain = 0
KCH1 071229Z 02006KT 03/02 A303 RMK A01 T00270018  RH  093%=      5-min Rain = 0
KCH1 071230Z 02004KT 03/02 A3029 RMK A01 T00270018  RH  093%=      5-min Rain = 0
KCH1 071231Z 02005KT 03/02 A3029 RMK A01 T00280018  RH  093%=      5-min Rain = 0
KCH1 071232Z 02006KT 03/02 A303 RMK A01 T00270018  RH  094%=      5-min Rain = 0
KCH1 071233Z 02005KT 03/02 A303 RMK A01 T00280018  RH  093%=      5-min Rain = 0
KCH1 071234Z 02006KT 03/02 A3029 RMK A01 T00280018  RH  093%=      5-min Rain = 0
KCH1 071235Z 01004KT 03/02 A303 RMK A01 T00280018  RH  093%=      5-min Rain = 0
KCH1 071236Z 01005KT 03/02 A303 RMK A01 T00280017  RH  093%=      5-min Rain = 0
KCH1 071237Z 01005KT 03/02 A3029 RMK A01 T00280018  RH  093%=      5-min Rain = 0
KCH1 071238Z 01005KT 03/02 A3029 RMK A01 T00280018  RH  093%=      5-min Rain = 0
KCH1 071239Z 01007KT 03/02 A3029 RMK A01 T00280018  RH  093%=      5-min Rain = 0
KCH1 071240Z 01005KT 03/02 A3029 RMK A01 T00280018  RH  093%=      5-min Rain = 0
KCH1 071241Z 01007KT 03/02 A3029 RMK A01 T00280018  RH  093%=      5-min Rain = 0
KCH1 071242Z 01007KT 03/02 A3029 RMK A01 T00280017  RH  093%=      5-min Rain = 0
KCH1 071243Z 02006KT 03/02 A3029 RMK A01 T00280017  RH  093%=      5-min Rain = 0
KCH1 071244Z 03006KT 03/02 A3029 RMK A01 T00280017  RH  093%=      5-min Rain = 0
KCH1 071245Z 02005KT 03/02 A3029 RMK A01 T00280017  RH  093%=      5-min Rain = 0
KCH1 071246Z 02005KT 03/02 A3029 RMK A01 T00280017  RH  093%=      5-min Rain = 0
KCH1 071247Z 03004KT 03/02 A3029 RMK A01 T00280017  RH  093%=      5-min Rain = 0
KCH1 071248Z 03004KT 03/02 A3029 RMK A01 T00280017  RH  093%=      5-min Rain = 0
KCH1 071249Z 03005KT 03/02 A3029 RMK A01 T00280018  RH  093%=      5-min Rain = 0
KCH1 071250Z 03003KT 03/02 A3029 RMK A01 T00280018  RH  093%=      5-min Rain = 0
KCH1 071251Z 04004KT 03/02 A3029 RMK A01 T00280019  RH  093%=      5-min Rain = 0
KCH1 071252Z 04007KT 03/02 A3029 RMK A01 T00290019  RH  093%=      5-min Rain = 0
KCH1 071253Z 03007KT 03/02 A3029 RMK A01 T00290019  RH  093%=      5-min Rain = 0
KCH1 071254Z 04006KT 03/02 A3029 RMK A01 T00290018  RH  093%=      5-min Rain = 0
KCH1 071255Z 05006KT 03/02 A3029 RMK A01 T00280018  RH  093%=      5-min Rain = 0
KCH1 071256Z 04005KT 03/02 A3029 RMK A01 T00280017  RH  093%=      5-min Rain = 0
KCH1 071257Z 05004KT 03/02 A3029 RMK A01 T00280018  RH  093%=      5-min Rain = 0
KCH1 071258Z 04005KT 03/02 A3029 RMK A01 T00280019  RH  093%=      5-min Rain = 0
KCH1 071259Z 05005KT 03/02 A3029 RMK A01 T00290020  RH  094%=      5-min Rain = 0
KCH1 071300Z 05005KT 03/02 A3029 RMK A01 T00280019  RH  094%=      5-min Rain = 0
KCH1 071301Z 04004KT 03/02 A3029 RMK A01 T00280019  RH  094%=      5-min Rain = 0
KCH1 071302Z 05005KT 03/02 A3029 RMK A01 T00280020  RH  094%=      5-min Rain = 0
KCH1 071303Z 04007KT 03/02 A3029 RMK A01 T00280020  RH  095%=      5-min Rain = 0.01
KCH1 071304Z 03006KT 03/02 A3029 RMK A01 T00280020  RH  095%=      5-min Rain = 0
KCH1 071305Z 04006KT 03/02 A3029 RMK A01 T00270020  RH  095%=      5-min Rain = 0
KCH1 071306Z 04007KT 03/02 A3029 RMK A01 T00270020  RH  095%=      5-min Rain = 0
KCH1 071307Z 04007KT 03/02 A3028 RMK A01 T00270020  RH  095%=      5-min Rain = 0
KCH1 071308Z 05007KT 03/02 A3028 RMK A01 T00270021  RH  096%=      5-min Rain = 0
KCH1 071309Z 05006KT 03/02 A3028 RMK A01 T00270021  RH  096%=      5-min Rain = 0
KCH1 071310Z 06008KT 03/02 A3028 RMK A01 T00270021  RH  096%=      5-min Rain = 0
KCH1 071311Z 06008KT 03/02 A3028 RMK A01 T00270021  RH  096%=      5-min Rain = 0
KCH1 071312Z 06009KT 03/02 A3028 RMK A01 T00260021  RH  096%=      5-min Rain = 0
KCH1 071313Z 06009KT 03/02 A3028 RMK A01 T00260020  RH  096%=      5-min Rain = 0
KCH1 071314Z 05009KT 03/02 A3028 RMK A01 T00260020  RH  096%=      5-min Rain = 0
KCH1 071315Z 06009KT 03/02 A3028 RMK A01 T00260020  RH  096%=      5-min Rain = 0.01
KCH1 071316Z 05008KT 03/02 A3028 RMK A01 T00260020  RH  096%=      5-min Rain = 0
KCH1 071317Z 05007KT 03/02 A3028 RMK A01 T00260020  RH  096%=      5-min Rain = 0
KCH1 071318Z 05007KT 03/02 A3028 RMK A01 T00260020  RH  096%=      5-min Rain = 0
KCH1 071319Z 05006KT 03/02 A3028 RMK A01 T00260020  RH  096%=      5-min Rain = 0
KCH1 071320Z 05006KT 03/02 A3028 RMK A01 T00260021  RH  097%=      5-min Rain = 0
KCH1 071321Z 06006KT 03/02 A3028 RMK A01 T00260021  RH  097%=      5-min Rain = 0
KCH1 071322Z 05007KT 03/02 A3028 RMK A01 T00260021  RH  097%=      5-min Rain = 0
KCH1 071323Z 06006KT 03/02 A3028 RMK A01 T00250021  RH  097%=      5-min Rain = 0
KCH1 071324Z 06006KT 03/02 A3028 RMK A01 T00250021  RH  097%=      5-min Rain = 0
KCH1 071325Z 06007KT 03/02 A3028 RMK A01 T00250021  RH  097%=      5-min Rain = 0
KCH1 071326Z 06008KT 03/02 A3028 RMK A01 T00250021  RH  097%=      5-min Rain = 0
KCH1 071327Z 05007KT 03/02 A3028 RMK A01 T00250021  RH  097%=      5-min Rain = 0
KCH1 071328Z 05006KT 03/02 A3028 RMK A01 T00250021  RH  097%=      5-min Rain = 0
KCH1 071329Z 05006KT 03/02 A3028 RMK A01 T00250021  RH  097%=      5-min Rain = 0
KCH1 071330Z 04007KT 03/02 A3028 RMK A01 T00260022  RH  097%=      5-min Rain = 0
KCH1 071331Z 05006KT 03/02 A3028 RMK A01 T00250021  RH  097%=      5-min Rain = 0
KCH1 071332Z 04005KT 03/02 A3029 RMK A01 T00260021  RH  097%=      5-min Rain = 0
KCH1 071333Z 04005KT 03/02 A3029 RMK A01 T00260022  RH  097%=      5-min Rain = 0
KCH1 071334Z 05006KT 03/02 A3029 RMK A01 T00250021  RH  097%=      5-min Rain = 0
KCH1 071335Z 03004KT 03/02 A3029 RMK A01 T00250021  RH  097%=      5-min Rain = 0
KCH1 071336Z 04005KT 03/02 A3029 RMK A01 T00260022  RH  097%=      5-min Rain = 0
KCH1 071337Z 03005KT 03/02 A3029 RMK A01 T00260022  RH  097%=      5-min Rain = 0
KCH1 071338Z 03004KT 03/02 A3029 RMK A01 T00260022  RH  097%=      5-min Rain = 0
KCH1 071339Z 02003KT 03/02 A3029 RMK A01 T00260022  RH  097%=      5-min Rain = 0
KCH1 071340Z 00003KT 03/02 A3029 RMK A01 T00260022  RH  097%=      5-min Rain = 0
KCH1 071341Z 00004KT 03/02 A3029 RMK A01 T00260022  RH  097%=      5-min Rain = 0
KCH1 071342Z 36003KT 03/02 A3029 RMK A01 T00260022  RH  097%=      5-min Rain = 0
KCH1 071343Z 36004KT 03/02 A3029 RMK A01 T00260023  RH  098%=      5-min Rain = 0
KCH1 071344Z 35002KT 03/02 A3029 RMK A01 T00260023  RH  098%=      5-min Rain = 0
KCH1 071345Z 00003KT 03/02 A303 RMK A01 T00260023  RH  098%=      5-min Rain = 0
KCH1 071346Z 35003KT 03/02 A303 RMK A01 T00260023  RH  098%=      5-min Rain = 0.01
KCH1 071347Z 36004KT 03/02 A303 RMK A01 T00260023  RH  098%=      5-min Rain = 0
KCH1 071348Z 35004KT 03/02 A303 RMK A01 T00270023  RH  098%=      5-min Rain = 0
KCH1 071349Z 35005KT 03/02 A303 RMK A01 T00260023  RH  098%=      5-min Rain = 0
KCH1 071350Z 35004KT 03/02 A303 RMK A01 T00260023  RH  098%=      5-min Rain = 0
KCH1 071351Z 33003KT 03/02 A303 RMK A01 T00260023  RH  098%=      5-min Rain = 0
KCH1 071352Z 32003KT 03/02 A303 RMK A01 T00260023  RH  098%=      5-min Rain = 0
KCH1 071353Z 32003KT 03/02 A3031 RMK A01 T00270023  RH  098%=      5-min Rain = 0
KCH1 071354Z 33003KT 03/02 A3031 RMK A01 T00270024  RH  098%=      5-min Rain = 0
KCH1 071355Z 34003KT 03/02 A3031 RMK A01 T00270024  RH  098%=      5-min Rain = 0
KCH1 071356Z 34004KT 03/02 A3031 RMK A01 T00270024  RH  098%=      5-min Rain = 0
KCH1 071357Z 33005KT 03/03 A3031 RMK A01 T00280025  RH  098%=      5-min Rain = 0
KCH1 071358Z 34006KT 03/03 A3031 RMK A01 T00280025  RH  098%=      5-min Rain = 0
KCH1 071359Z 35006KT 03/02 A3031 RMK A01 T00280024  RH  098%=      5-min Rain = 0
KCH1 071400Z 34004KT 03/02 A3031 RMK A01 T00280024  RH  098%=      5-min Rain = 0
KCH1 071401Z 33005KT 03/03 A3031 RMK A01 T00280025  RH  098%=      5-min Rain = 0
KCH1 071402Z 34006KT 03/03 A3031 RMK A01 T00280025  RH  098%=      5-min Rain = 0
KCH1 071403Z 35006KT 03/03 A3031 RMK A01 T00280025  RH  098%=      5-min Rain = 0
KCH1 071404Z 34004KT 03/02 A3031 RMK A01 T00280024  RH  098%=      5-min Rain = 0
KCH1 071405Z 36006KT 03/02 A3031 RMK A01 T00280024  RH  098%=      5-min Rain = 0
KCH1 071406Z 36005KT 03/02 A3031 RMK A01 T00270024  RH  098%=      5-min Rain = 0
KCH1 071407Z 35004KT 03/02 A3031 RMK A01 T00280024  RH  098%=      5-min Rain = 0
KCH1 071408Z 00004KT 03/02 A3031 RMK A01 T00280024  RH  098%=      5-min Rain = 0
KCH1 071409Z 36006KT 03/02 A3032 RMK A01 T00280024  RH  098%=      5-min Rain = 0
KCH1 071410Z 35005KT 03/02 A3032 RMK A01 T00280024  RH  097%=      5-min Rain = 0
KCH1 071411Z 34004KT 03/02 A3032 RMK A01 T00280024  RH  097%=      5-min Rain = 0
KCH1 071412Z 35004KT 03/02 A3032 RMK A01 T00280024  RH  097%=      5-min Rain = 0
KCH1 071413Z 35004KT 03/02 A3032 RMK A01 T00280024  RH  097%=      5-min Rain = 0
KCH1 071414Z 35004KT 03/02 A3032 RMK A01 T00280024  RH  097%=      5-min Rain = 0
KCH1 071415Z 36004KT 03/02 A3032 RMK A01 T00280024  RH  097%=      5-min Rain = 0
KCH1 071416Z 36004KT 03/02 A3032 RMK A01 T00280024  RH  097%=      5-min Rain = 0
KCH1 071417Z 00003KT 03/02 A3032 RMK A01 T00280024  RH  097%=      5-min Rain = 0
KCH1 071418Z 36004KT 03/02 A3032 RMK A01 T00280024  RH  098%=      5-min Rain = 0
KCH1 071419Z 35004KT 03/03 A3032 RMK A01 T00280025  RH  098%=      5-min Rain = 0
KCH1 071420Z 35003KT 03/03 A3032 RMK A01 T00290025  RH  098%=      5-min Rain = 0
KCH1 071421Z 35003KT 03/03 A3032 RMK A01 T00290025  RH  098%=      5-min Rain = 0
KCH1 071422Z 36003KT 03/03 A3032 RMK A01 T00290025  RH  098%=      5-min Rain = 0
KCH1 071423Z 00003KT 03/03 A3032 RMK A01 T00290025  RH  098%=      5-min Rain = 0
KCH1 071424Z 00003KT 03/03 A3032 RMK A01 T00290025  RH  098%=      5-min Rain = 0
KCH1 071425Z 35003KT 03/03 A3032 RMK A01 T00290025  RH  098%=      5-min Rain = 0
KCH1 071426Z 01002KT 03/03 A3032 RMK A01 T00290025  RH  098%=      5-min Rain = 0
KCH1 071427Z 01004KT 03/03 A3032 RMK A01 T00290025  RH  098%=      5-min Rain = 0
KCH1 071428Z 01003KT 03/03 A3032 RMK A01 T00290025  RH  098%=      5-min Rain = 0
KCH1 071429Z 01004KT 03/03 A3032 RMK A01 T00290025  RH  098%=      5-min Rain = 0
KCH1 071430Z 00003KT 03/03 A3032 RMK A01 T00290025  RH  098%=      5-min Rain = 0
KCH1 071431Z 00003KT 03/03 A3032 RMK A01 T00290026  RH  098%=      5-min Rain = 0
KCH1 071432Z 01002KT 03/03 A3032 RMK A01 T00290026  RH  098%=      5-min Rain = 0
KCH1 071433Z 01002KT 03/03 A3032 RMK A01 T00290026  RH  098%=      5-min Rain = 0
KCH1 071434Z 02003KT 03/03 A3032 RMK A01 T00290026  RH  098%=      5-min Rain = 0
KCH1 071435Z 02003KT 03/03 A3032 RMK A01 T00300026  RH  098%=      5-min Rain = 0
KCH1 071436Z 02002KT 03/03 A3032 RMK A01 T00290026  RH  098%=      5-min Rain = 0
KCH1 071437Z 02002KT 03/03 A3032 RMK A01 T00300026  RH  098%=      5-min Rain = 0
KCH1 071438Z 01003KT 03/03 A3032 RMK A01 T00300027  RH  098%=      5-min Rain = 0
KCH1 071439Z 01004KT 03/03 A3032 RMK A01 T00300027  RH  098%=      5-min Rain = 0
KCH1 071440Z 03003KT 03/03 A3032 RMK A01 T00300027  RH  098%=      5-min Rain = 0
KCH1 071441Z 03003KT 03/03 A3032 RMK A01 T00300026  RH  098%=      5-min Rain = 0
KCH1 071442Z 03003KT 03/03 A3032 RMK A01 T00300026  RH  098%=      5-min Rain = 0
KCH1 071443Z 03003KT 03/03 A3032 RMK A01 T00300026  RH  098%=      5-min Rain = 0
KCH1 071444Z 04002KT 03/03 A3032 RMK A01 T00300027  RH  098%=      5-min Rain = 0
KCH1 071445Z 05003KT 03/03 A3032 RMK A01 T00300027  RH  098%=      5-min Rain = 0
KCH1 071446Z 05003KT 03/03 A3032 RMK A01 T00300027  RH  098%=      5-min Rain = 0
KCH1 071447Z 04003KT 03/03 A3033 RMK A01 T00300027  RH  098%=      5-min Rain = 0
KCH1 071448Z 04002KT 03/03 A3033 RMK A01 T00300027  RH  098%=      5-min Rain = 0
KCH1 071449Z 05002KT 03/03 A3033 RMK A01 T00300027  RH  098%=      5-min Rain = 0
KCH1 071450Z 04001KT 03/03 A3033 RMK A01 T00310027  RH  098%=      5-min Rain = 0
KCH1 071451Z 03001KT 03/03 A3033 RMK A01 T00300027  RH  098%=      5-min Rain = 0
KCH1 071452Z 05001KT 03/03 A3033 RMK A01 T00300027  RH  098%=      5-min Rain = 0
KCH1 071453Z 06003KT 03/03 A3033 RMK A01 T00300027  RH  098%=      5-min Rain = 0
KCH1 071454Z 06003KT 03/03 A3033 RMK A01 T00310027  RH  098%=      5-min Rain = 0
KCH1 071455Z 07002KT 03/03 A3033 RMK A01 T00300027  RH  098%=      5-min Rain = 0
KCH1 071456Z 05002KT 03/03 A3033 RMK A01 T00300027  RH  098%=      5-min Rain = 0
KCH1 071457Z 06002KT 03/03 A3033 RMK A01 T00310027  RH  098%=      5-min Rain = 0
KCH1 071458Z 06003KT 03/03 A3033 RMK A01 T00300027  RH  098%=      5-min Rain = 0
KCH1 071459Z 05003KT 03/03 A3033 RMK A01 T00310027  RH  098%=      5-min Rain = 0
KCH1 071500Z 05002KT 03/03 A3033 RMK A01 T00300027  RH  097%=      5-min Rain = 0
KCH1 071501Z 05002KT 03/03 A3033 RMK A01 T00300026  RH  097%=      5-min Rain = 0
KCH1 071502Z 05002KT 03/03 A3033 RMK A01 T00300026  RH  097%=      5-min Rain = 0
KCH1 071503Z 05002KT 03/03 A3033 RMK A01 T00310027  RH  098%=      5-min Rain = 0
KCH1 071504Z 05003KT 03/03 A3033 RMK A01 T00310028  RH  098%=      5-min Rain = 0
KCH1 071505Z 05004KT 03/03 A3033 RMK A01 T00310027  RH  097%=      5-min Rain = 0
KCH1 071506Z 06003KT 03/03 A3033 RMK A01 T00300027  RH  097%=      5-min Rain = 0
KCH1 071507Z 04003KT 03/03 A3034 RMK A01 T00300027  RH  097%=      5-min Rain = 0
KCH1 071508Z 03003KT 03/03 A3034 RMK A01 T00310027  RH  097%=      5-min Rain = 0
KCH1 071509Z 03003KT 03/03 A3034 RMK A01 T00310027  RH  097%=      5-min Rain = 0
KCH1 071510Z 04004KT 03/03 A3034 RMK A01 T00310027  RH  097%=      5-min Rain = 0
KCH1 071511Z 03003KT 03/03 A3034 RMK A01 T00310027  RH  097%=      5-min Rain = 0
KCH1 071512Z 04003KT 03/03 A3034 RMK A01 T00310027  RH  097%=      5-min Rain = 0
KCH1 071513Z 04003KT 03/03 A3034 RMK A01 T00310027  RH  097%=      5-min Rain = 0
KCH1 071514Z 04005KT 03/03 A3034 RMK A01 T00310028  RH  098%=      5-min Rain = 0
KCH1 071515Z 04005KT 03/03 A3033 RMK A01 T00310028  RH  098%=      5-min Rain = 0
KCH1 071516Z 04004KT 03/03 A3033 RMK A01 T00300026  RH  097%=      5-min Rain = 0
KCH1 071517Z 05005KT 03/03 A3033 RMK A01 T00310027  RH  097%=      5-min Rain = 0
KCH1 071518Z 05005KT 03/03 A3033 RMK A01 T00300026  RH  097%=      5-min Rain = 0
KCH1 071519Z 05005KT 03/03 A3033 RMK A01 T00300026  RH  097%=      5-min Rain = 0
KCH1 071520Z 06005KT 03/03 A3033 RMK A01 T00300026  RH  097%=      5-min Rain = 0
KCH1 071521Z 05004KT 03/03 A3034 RMK A01 T00300026  RH  097%=      5-min Rain = 0.01
KCH1 071522Z 05005KT 03/03 A3034 RMK A01 T00300026  RH  097%=      5-min Rain = 0
KCH1 071523Z 05005KT 03/03 A3034 RMK A01 T00300026  RH  097%=      5-min Rain = 0
KCH1 071524Z 06005KT 03/03 A3034 RMK A01 T00300026  RH  097%=      5-min Rain = 0
KCH1 071525Z 07004KT 03/03 A3034 RMK A01 T00300026  RH  097%=      5-min Rain = 0
KCH1 071526Z 06005KT 03/03 A3034 RMK A01 T00310027  RH  097%=      5-min Rain = 0
KCH1 071527Z 06005KT 03/03 A3034 RMK A01 T00300026  RH  097%=      5-min Rain = 0
KCH1 071528Z 06004KT 03/03 A3034 RMK A01 T00300026  RH  097%=      5-min Rain = 0
KCH1 071529Z 06005KT 03/03 A3034 RMK A01 T00300026  RH  097%=      5-min Rain = 0
KCH1 071530Z 06005KT 03/03 A3034 RMK A01 T00290025  RH  097%=      5-min Rain = 0
KCH1 071531Z 06005KT 03/02 A3034 RMK A01 T00290024  RH  097%=      5-min Rain = 0
KCH1 071532Z 05004KT 03/03 A3034 RMK A01 T00290025  RH  097%=      5-min Rain = 0
KCH1 071533Z 06004KT 03/03 A3034 RMK A01 T00290025  RH  097%=      5-min Rain = 0
KCH1 071534Z 06004KT 03/02 A3034 RMK A01 T00290024  RH  097%=      5-min Rain = 0
KCH1 071535Z 06005KT 03/03 A3034 RMK A01 T00290025  RH  097%=      5-min Rain = 0
KCH1 071536Z 05005KT 03/03 A3034 RMK A01 T00300025  RH  097%=      5-min Rain = 0
KCH1 071537Z 05004KT 03/03 A3034 RMK A01 T00300025  RH  097%=      5-min Rain = 0
KCH1 071538Z 06005KT 03/03 A3034 RMK A01 T00290025  RH  097%=      5-min Rain = 0
KCH1 071539Z 05004KT 03/02 A3034 RMK A01 T00290024  RH  097%=      5-min Rain = 0
KCH1 071540Z 05005KT 03/03 A3034 RMK A01 T00300025  RH  097%=      5-min Rain = 0
KCH1 071541Z 05005KT 03/03 A3034 RMK A01 T00290025  RH  097%=      5-min Rain = 0
KCH1 071542Z 05005KT 03/02 A3034 RMK A01 T00290024  RH  097%=      5-min Rain = 0.01
KCH1 071543Z 05005KT 03/02 A3034 RMK A01 T00290024  RH  097%=      5-min Rain = 0
KCH1 071544Z 05005KT 03/03 A3034 RMK A01 T00290025  RH  097%=      5-min Rain = 0
KCH1 071545Z 05005KT 03/03 A3034 RMK A01 T00290025  RH  097%=      5-min Rain = 0
KCH1 071546Z 04005KT 03/03 A3034 RMK A01 T00290025  RH  097%=      5-min Rain = 0
KCH1 071547Z 04004KT 03/03 A3034 RMK A01 T00290025  RH  097%=      5-min Rain = 0
KCH1 071548Z 05004KT 03/03 A3034 RMK A01 T00290025  RH  097%=      5-min Rain = 0
KCH1 071549Z 04004KT 03/03 A3034 RMK A01 T00290025  RH  097%=      5-min Rain = 0
KCH1 071550Z 04005KT 03/03 A3034 RMK A01 T00290026  RH  097%=      5-min Rain = 0
KCH1 071551Z 05005KT 03/03 A3034 RMK A01 T00300026  RH  097%=      5-min Rain = 0
KCH1 071552Z 04004KT 03/03 A3034 RMK A01 T00290026  RH  097%=      5-min Rain = 0.01
KCH1 071553Z 04004KT 03/03 A3034 RMK A01 T00290026  RH  098%=      5-min Rain = 0
KCH1 071554Z 04004KT 03/03 A3034 RMK A01 T00300026  RH  098%=      5-min Rain = 0
KCH1 071555Z 05004KT 03/03 A3034 RMK A01 T00300026  RH  098%=      5-min Rain = 0
KCH1 071556Z 05004KT 03/03 A3034 RMK A01 T00290026  RH  098%=      5-min Rain = 0
KCH1 071557Z 03003KT 03/03 A3034 RMK A01 T00300026  RH  098%=      5-min Rain = 0
KCH1 071558Z 01003KT 03/03 A3034 RMK A01 T00300027  RH  098%=      5-min Rain = 0
KCH1 071559Z 02003KT 03/03 A3034 RMK A01 T00310028  RH  098%=      5-min Rain = 0.01
KCH1 071600Z 02003KT 03/03 A3034 RMK A01 T00310029  RH  098%=      5-min Rain = 0
KCH1 071601Z 02003KT 03/03 A3034 RMK A01 T00310029  RH  098%=      5-min Rain = 0
KCH1 071602Z 03003KT 03/03 A3034 RMK A01 T00310029  RH  098%=      5-min Rain = 0
KCH1 071603Z 03003KT 03/03 A3034 RMK A01 T00310028  RH  098%=      5-min Rain = 0
KCH1 071604Z 04004KT 03/03 A3034 RMK A01 T00310028  RH  098%=      5-min Rain = 0
KCH1 071605Z 04004KT 03/03 A3034 RMK A01 T00310028  RH  098%=      5-min Rain = 0
KCH1 071606Z 04004KT 03/03 A3034 RMK A01 T00310028  RH  098%=      5-min Rain = 0
KCH1 071607Z 03003KT 03/03 A3033 RMK A01 T00310028  RH  098%=      5-min Rain = 0
KCH1 071608Z 04004KT 03/03 A3033 RMK A01 T00310029  RH  098%=      5-min Rain = 0.01
KCH1 071609Z 04004KT 03/03 A3033 RMK A01 T00310029  RH  098%=      5-min Rain = 0
KCH1 071610Z 04004KT 03/03 A3033 RMK A01 T00310029  RH  098%=      5-min Rain = 0
KCH1 071611Z 04004KT 03/03 A3033 RMK A01 T00310028  RH  098%=      5-min Rain = 0
KCH1 071612Z 04004KT 03/03 A3033 RMK A01 T00300028  RH  098%=      5-min Rain = 0
KCH1 071613Z 03005KT 03/03 A3033 RMK A01 T00310028  RH  098%=      5-min Rain = 0.01
KCH1 071614Z 04004KT 03/03 A3033 RMK A01 T00310028  RH  098%=      5-min Rain = 0
KCH1 071615Z 03005KT 03/03 A3033 RMK A01 T00310029  RH  098%=      5-min Rain = 0
KCH1 071616Z 03005KT 03/03 A3033 RMK A01 T00310029  RH  098%=      5-min Rain = 0
KCH1 071617Z 02004KT 03/03 A3033 RMK A01 T00310029  RH  098%=      5-min Rain = 0
KCH1 071618Z 03004KT 03/03 A3033 RMK A01 T00310029  RH  098%=      5-min Rain = 0
KCH1 071619Z 03004KT 03/03 A3033 RMK A01 T00320029  RH  098%=      5-min Rain = 0
KCH1 071620Z 04004KT 03/03 A3033 RMK A01 T00320030  RH  099%=      5-min Rain = 0
KCH1 071621Z 04003KT 03/03 A3033 RMK A01 T00320030  RH  099%=      5-min Rain = 0
KCH1 071622Z 03004KT 03/03 A3033 RMK A01 T00330031  RH  099%=      5-min Rain = 0
KCH1 071623Z 04005KT 03/03 A3033 RMK A01 T00330031  RH  099%=      5-min Rain = 0
KCH1 071624Z 04006KT 03/03 A3033 RMK A01 T00330031  RH  099%=      5-min Rain = 0.01
KCH1 071625Z 04005KT 03/03 A3033 RMK A01 T00330031  RH  099%=      5-min Rain = 0
KCH1 071626Z 05004KT 03/03 A3033 RMK A01 T00330031  RH  098%=      5-min Rain = 0
KCH1 071627Z 04004KT 03/03 A3033 RMK A01 T00330031  RH  098%=      5-min Rain = 0
KCH1 071628Z 04005KT 03/03 A3033 RMK A01 T00330031  RH  099%=      5-min Rain = 0
KCH1 071629Z 03004KT 03/03 A3033 RMK A01 T00340032  RH  099%=      5-min Rain = 0
KCH1 071630Z 04004KT 03/03 A3033 RMK A01 T00340031  RH  099%=      5-min Rain = 0
KCH1 071631Z 03002KT 03/03 A3033 RMK A01 T00340032  RH  099%=      5-min Rain = 0
KCH1 071632Z 04002KT 04/03 A3033 RMK A01 T00350033  RH  099%=      5-min Rain = 0
KCH1 071633Z 04003KT 04/03 A3033 RMK A01 T00360034  RH  099%=      5-min Rain = 0
KCH1 071634Z 03003KT 04/03 A3033 RMK A01 T00360034  RH  099%=      5-min Rain = 0
KCH1 071635Z 03005KT 04/03 A3033 RMK A01 T00360034  RH  099%=      5-min Rain = 0.01
KCH1 071636Z 03005KT 04/03 A3033 RMK A01 T00360034  RH  099%=      5-min Rain = 0
KCH1 071637Z 03003KT 04/03 A3033 RMK A01 T00350033  RH  099%=      5-min Rain = 0
KCH1 071638Z 03003KT 04/03 A3033 RMK A01 T00350033  RH  099%=      5-min Rain = 0
KCH1 071639Z 04004KT 04/03 A3033 RMK A01 T00350033  RH  099%=      5-min Rain = 0
KCH1 071640Z 03005KT 04/03 A3033 RMK A01 T00360034  RH  099%=      5-min Rain = 0
KCH1 071641Z 02004KT 04/03 A3033 RMK A01 T00350033  RH  099%=      5-min Rain = 0
KCH1 071642Z 03004KT 04/03 A3033 RMK A01 T00350033  RH  099%=      5-min Rain = 0
KCH1 071643Z 03004KT 04/03 A3033 RMK A01 T00350033  RH  099%=      5-min Rain = 0
KCH1 071644Z 03002KT 04/03 A3033 RMK A01 T00350033  RH  099%=      5-min Rain = 0
KCH1 071645Z 03003KT 04/03 A3033 RMK A01 T00350033  RH  099%=      5-min Rain = 0.01
KCH1 071646Z 04005KT 04/03 A3033 RMK A01 T00360034  RH  099%=      5-min Rain = 0
KCH1 071647Z 04005KT 04/03 A3033 RMK A01 T00360034  RH  099%=      5-min Rain = 0
KCH1 071648Z 04005KT 04/03 A3033 RMK A01 T00350034  RH  099%=      5-min Rain = 0
KCH1 071649Z 04003KT 04/03 A3032 RMK A01 T00350033  RH  099%=      5-min Rain = 0
KCH1 071650Z 04004KT 04/03 A3032 RMK A01 T00360034  RH  099%=      5-min Rain = 0
KCH1 071651Z 04004KT 04/04 A3032 RMK A01 T00370035  RH  099%=      5-min Rain = 0
KCH1 071652Z 03003KT 04/04 A3032 RMK A01 T00370036  RH  099%=      5-min Rain = 0
KCH1 071653Z 03004KT 04/04 A3032 RMK A01 T00370036  RH  099%=      5-min Rain = 0
KCH1 071654Z 03003KT 04/04 A3032 RMK A01 T00370036  RH  099%=      5-min Rain = 0
KCH1 071655Z 04004KT 04/04 A3032 RMK A01 T00370036  RH  099%=      5-min Rain = 0
KCH1 071656Z 03004KT 04/04 A3032 RMK A01 T00370036  RH  099%=      5-min Rain = 0.01
KCH1 071657Z 03004KT 04/04 A3032 RMK A01 T00370035  RH  099%=      5-min Rain = 0
KCH1 071658Z 03004KT 04/04 A3032 RMK A01 T00370035  RH  099%=      5-min Rain = 0
KCH1 071659Z 02004KT 04/04 A3032 RMK A01 T00370036  RH  099%=      5-min Rain = 0
KCH1 071700Z 03004KT 04/04 A3032 RMK A01 T00370036  RH  099%=      5-min Rain = 0
KCH1 071701Z 03005KT 04/04 A3032 RMK A01 T00370036  RH  099%=      5-min Rain = 0
KCH1 071702Z 03004KT 04/04 A3032 RMK A01 T00380036  RH  099%=      5-min Rain = 0
KCH1 071703Z 03004KT 04/04 A3032 RMK A01 T00380036  RH  099%=      5-min Rain = 0
KCH1 071704Z 04005KT 04/04 A3032 RMK A01 T00380036  RH  099%=      5-min Rain = 0
KCH1 071705Z 02004KT 04/04 A3032 RMK A01 T00380036  RH  099%=      5-min Rain = 0
KCH1 071706Z 01003KT 04/04 A3032 RMK A01 T00380037  RH  099%=      5-min Rain = 0
KCH1 071707Z 02003KT 04/04 A3032 RMK A01 T00390037  RH  099%=      5-min Rain = 0
KCH1 071708Z 04003KT 04/04 A3032 RMK A01 T00400038  RH  099%=      5-min Rain = 0
KCH1 071709Z 04004KT 04/04 A3032 RMK A01 T00400039  RH  099%=      5-min Rain = 0
KCH1 071710Z 03003KT 04/04 A3032 RMK A01 T00400039  RH  099%=      5-min Rain = 0
KCH1 071711Z 02002KT 04/04 A3031 RMK A01 T00400039  RH  099%=      5-min Rain = 0
KCH1 071712Z 02003KT 04/04 A3031 RMK A01 T00400039  RH  099%=      5-min Rain = 0
KCH1 071713Z 02004KT 04/04 A3031 RMK A01 T00410039  RH  099%=      5-min Rain = 0
KCH1 071714Z 02003KT 04/04 A3031 RMK A01 T00400038  RH  099%=      5-min Rain = 0
KCH1 071715Z 02004KT 04/04 A3031 RMK A01 T00400038  RH  099%=      5-min Rain = 0
KCH1 071716Z 01005KT 04/04 A3031 RMK A01 T00400038  RH  099%=      5-min Rain = 0.01
KCH1 071717Z 36004KT 04/04 A3031 RMK A01 T00390038  RH  099%=      5-min Rain = 0
KCH1 071718Z 01006KT 04/04 A3031 RMK A01 T00390037  RH  099%=      5-min Rain = 0
KCH1 071719Z 01005KT 04/04 A3031 RMK A01 T00390038  RH  099%=      5-min Rain = 0
KCH1 071720Z 01003KT 04/04 A3031 RMK A01 T00390038  RH  099%=      5-min Rain = 0
KCH1 071721Z 02004KT 04/04 A3031 RMK A01 T00400039  RH  099%=      5-min Rain = 0
KCH1 071722Z 03005KT 04/04 A3031 RMK A01 T00410040  RH  099%=      5-min Rain = 0
KCH1 071723Z 02004KT 04/04 A3031 RMK A01 T00410039  RH  099%=      5-min Rain = 0
KCH1 071724Z 03003KT 04/04 A303 RMK A01 T00400038  RH  099%=      5-min Rain = 0
KCH1 071725Z 03006KT 04/04 A303 RMK A01 T00400039  RH  099%=      5-min Rain = 0
KCH1 071726Z 02006KT 04/04 A303 RMK A01 T00400039  RH  099%=      5-min Rain = 0
KCH1 071727Z 03006KT 04/04 A303 RMK A01 T00400038  RH  099%=      5-min Rain = 0
KCH1 071728Z 02004KT 04/04 A303 RMK A01 T00400038  RH  099%=      5-min Rain = 0
KCH1 071729Z 03005KT 04/04 A303 RMK A01 T00400038  RH  099%=      5-min Rain = 0
KCH1 071730Z 03005KT 04/04 A303 RMK A01 T00400038  RH  099%=      5-min Rain = 0
KCH1 071731Z 03004KT 04/04 A303 RMK A01 T00400038  RH  099%=      5-min Rain = 0
KCH1 071732Z 04006KT 04/04 A303 RMK A01 T00400038  RH  099%=      5-min Rain = 0
KCH1 071733Z 04007KT 04/04 A303 RMK A01 T00410039  RH  099%=      5-min Rain = 0
KCH1 071734Z 05008KT 04/04 A303 RMK A01 T00400038  RH  099%=      5-min Rain = 0
KCH1 071735Z 04007KT 04/04 A3029 RMK A01 T00390037  RH  098%=      5-min Rain = 0
KCH1 071736Z 05005KT 04/04 A3029 RMK A01 T00400037  RH  098%=      5-min Rain = 0
KCH1 071737Z 04007KT 04/04 A3029 RMK A01 T00390037  RH  098%=      5-min Rain = 0
KCH1 071738Z 03007KT 04/04 A3029 RMK A01 T00390037  RH  098%=      5-min Rain = 0.01
KCH1 071739Z 03007KT 04/04 A3029 RMK A01 T00390036  RH  098%=      5-min Rain = 0
KCH1 071740Z 03006KT 04/04 A3029 RMK A01 T00390036  RH  098%=      5-min Rain = 0
KCH1 071741Z 04005KT 04/04 A3029 RMK A01 T00380035  RH  098%=      5-min Rain = 0
KCH1 071742Z 02007KT 04/04 A3029 RMK A01 T00390036  RH  098%=      5-min Rain = 0
KCH1 071743Z 03007KT 04/04 A3029 RMK A01 T00390036  RH  098%=      5-min Rain = 0
KCH1 071744Z 03008KT 04/04 A3029 RMK A01 T00390036  RH  098%=      5-min Rain = 0
KCH1 071745Z 03008KT 04/03 A3029 RMK A01 T00380034  RH  098%=      5-min Rain = 0
KCH1 071746Z 04008KT 04/03 A3029 RMK A01 T00370033  RH  098%=      5-min Rain = 0
KCH1 071747Z 06009KT 04/03 A3029 RMK A01 T00370033  RH  098%=      5-min Rain = 0
KCH1 071748Z 05008KT 04/03 A3029 RMK A01 T00370033  RH  098%=      5-min Rain = 0
KCH1 071749Z 05008KT 04/03 A3029 RMK A01 T00370033  RH  098%=      5-min Rain = 0
KCH1 071750Z 05010KT 04/03 A3028 RMK A01 T00370033  RH  097%=      5-min Rain = 0
KCH1 071751Z 05008KT 04/03 A3028 RMK A01 T00360032  RH  097%=      5-min Rain = 0
KCH1 071752Z 05007KT 04/03 A3028 RMK A01 T00360032  RH  097%=      5-min Rain = 0
KCH1 071753Z 05007KT 04/03 A3028 RMK A01 T00370034  RH  098%=      5-min Rain = 0
KCH1 071754Z 05006KT 04/03 A3028 RMK A01 T00370034  RH  098%=      5-min Rain = 0
KCH1 071755Z 05006KT 04/03 A3028 RMK A01 T00370034  RH  098%=      5-min Rain = 0
KCH1 071756Z 06007KT 04/03 A3028 RMK A01 T00370033  RH  098%=      5-min Rain = 0
KCH1 071757Z 05008KT 04/03 A3028 RMK A01 T00360033  RH  097%=      5-min Rain = 0
KCH1 071758Z 04006KT 04/03 A3028 RMK A01 T00360032  RH  097%=      5-min Rain = 0
KCH1 071759Z 04008KT 04/03 A3028 RMK A01 T00360033  RH  098%=      5-min Rain = 0
KCH1 071800Z 03008KT 04/03 A3028 RMK A01 T00370033  RH  098%=      5-min Rain = 0.01
KCH1 071801Z 04009KT 04/03 A3028 RMK A01 T00360032  RH  097%=      5-min Rain = 0
KCH1 071802Z 04007KT 04/03 A3028 RMK A01 T00350031  RH  097%=      5-min Rain = 0
KCH1 071803Z 04009KT 04/03 A3028 RMK A01 T00360032  RH  097%=      5-min Rain = 0
KCH1 071804Z 05007KT 04/03 A3028 RMK A01 T00350031  RH  097%=      5-min Rain = 0
KCH1 071805Z 04010KT 04/03 A3027 RMK A01 T00350031  RH  097%=      5-min Rain = 0
KCH1 071806Z 04007KT 04/03 A3027 RMK A01 T00350031  RH  097%=      5-min Rain = 0
KCH1 071807Z 04008KT 04/03 A3027 RMK A01 T00350031  RH  097%=      5-min Rain = 0
KCH1 071808Z 04009KT 04/03 A3027 RMK A01 T00350031  RH  097%=      5-min Rain = 0
KCH1 071809Z 03008KT 04/03 A3027 RMK A01 T00350031  RH  097%=      5-min Rain = 0
KCH1 071810Z 03007KT 03/03 A3027 RMK A01 T00340031  RH  097%=      5-min Rain = 0
KCH1 071811Z 03008KT 03/03 A3027 RMK A01 T00340031  RH  097%=      5-min Rain = 0
KCH1 071812Z 03006KT 04/03 A3027 RMK A01 T00350031  RH  097%=      5-min Rain = 0
KCH1 071813Z 03007KT 03/03 A3027 RMK A01 T00340031  RH  098%=      5-min Rain = 0
KCH1 071814Z 04007KT 04/03 A3027 RMK A01 T00350031  RH  098%=      5-min Rain = 0
KCH1 071815Z 04008KT 04/03 A3027 RMK A01 T00350031  RH  098%=      5-min Rain = 0
KCH1 071816Z 04008KT 04/03 A3027 RMK A01 T00350031  RH  098%=      5-min Rain = 0
KCH1 071817Z 03007KT 03/03 A3027 RMK A01 T00340031  RH  098%=      5-min Rain = 0
KCH1 071818Z 04009KT 04/03 A3027 RMK A01 T00350031  RH  098%=      5-min Rain = 0
KCH1 071819Z 04008KT 04/03 A3027 RMK A01 T00350031  RH  098%=      5-min Rain = 0
KCH1 071820Z 05008KT 04/03 A3027 RMK A01 T00350031  RH  098%=      5-min Rain = 0
KCH1 071821Z 04007KT 03/03 A3027 RMK A01 T00340031  RH  098%=      5-min Rain = 0
KCH1 071822Z 05007KT 04/03 A3027 RMK A01 T00350032  RH  098%=      5-min Rain = 0
KCH1 071823Z 06008KT 04/03 A3026 RMK A01 T00360033  RH  098%=      5-min Rain = 0
KCH1 071824Z 04007KT 04/03 A3026 RMK A01 T00360033  RH  098%=      5-min Rain = 0
KCH1 071825Z 05008KT 04/03 A3026 RMK A01 T00360034  RH  098%=      5-min Rain = 0
KCH1 071826Z 06010KT 04/03 A3026 RMK A01 T00360034  RH  098%=      5-min Rain = 0
KCH1 071827Z 05009KT 04/03 A3026 RMK A01 T00360033  RH  098%=      5-min Rain = 0
KCH1 071828Z 05009KT 04/03 A3026 RMK A01 T00360033  RH  098%=      5-min Rain = 0
KCH1 071829Z 05010KT 04/03 A3026 RMK A01 T00350032  RH  098%=      5-min Rain = 0
KCH1 071830Z 05009KT 04/03 A3026 RMK A01 T00350031  RH  097%=      5-min Rain = 0
KCH1 071831Z 05010KT 04/03 A3026 RMK A01 T00350031  RH  097%=      5-min Rain = 0.01
KCH1 071832Z 04009KT 04/03 A3026 RMK A01 T00350031  RH  097%=      5-min Rain = 0
KCH1 071833Z 04009KT 04/03 A3026 RMK A01 T00350031  RH  097%=      5-min Rain = 0
KCH1 071834Z 04010KT 04/03 A3026 RMK A01 T00350031  RH  097%=      5-min Rain = 0
KCH1 071835Z 04008KT 04/03 A3026 RMK A01 T00350032  RH  097%=      5-min Rain = 0
KCH1 071836Z 03009KT 04/03 A3026 RMK A01 T00350031  RH  098%=      5-min Rain = 0
KCH1 071837Z 05011KT 04/03 A3026 RMK A01 T00350031  RH  097%=      5-min Rain = 0
KCH1 071838Z 04011KT 04/03 A3026 RMK A01 T00350031  RH  097%=      5-min Rain = 0
KCH1 071839Z 05009KT 04/03 A3026 RMK A01 T00350031  RH  097%=      5-min Rain = 0
KCH1 071840Z 05009KT 04/03 A3026 RMK A01 T00360032  RH  098%=      5-min Rain = 0
KCH1 071841Z 05008KT 04/03 A3026 RMK A01 T00360032  RH  098%=      5-min Rain = 0
KCH1 071842Z 04009KT 04/03 A3026 RMK A01 T00360033  RH  098%=      5-min Rain = 0
KCH1 071843Z 04006KT 04/03 A3026 RMK A01 T00360032  RH  098%=      5-min Rain = 0
KCH1 071844Z 04008KT 04/03 A3026 RMK A01 T00360032  RH  098%=      5-min Rain = 0
KCH1 071845Z 04006KT 04/03 A3026 RMK A01 T00360033  RH  098%=      5-min Rain = 0
KCH1 071846Z 03004KT 04/03 A3026 RMK A01 T00360032  RH  098%=      5-min Rain = 0
KCH1 071847Z 02003KT 04/03 A3026 RMK A01 T00360033  RH  098%=      5-min Rain = 0
KCH1 071848Z 02003KT 04/03 A3026 RMK A01 T00360033  RH  098%=      5-min Rain = 0
KCH1 071849Z 01006KT 04/03 A3026 RMK A01 T00370034  RH  098%=      5-min Rain = 0
KCH1 071850Z 01006KT 04/03 A3026 RMK A01 T00370034  RH  098%=      5-min Rain = 0
KCH1 071851Z 02006KT 04/03 A3026 RMK A01 T00360033  RH  098%=      5-min Rain = 0
KCH1 071852Z 01005KT 04/03 A3026 RMK A01 T00370034  RH  098%=      5-min Rain = 0
KCH1 071853Z 02006KT 04/03 A3026 RMK A01 T00360034  RH  098%=      5-min Rain = 0
KCH1 071854Z 02008KT 04/03 A3027 RMK A01 T00360034  RH  098%=      5-min Rain = 0
KCH1 071855Z 02006KT 04/03 A3027 RMK A01 T00360033  RH  098%=      5-min Rain = 0
KCH1 071856Z 01004KT 04/03 A3027 RMK A01 T00360033  RH  098%=      5-min Rain = 0
KCH1 071857Z 35003KT 04/03 A3027 RMK A01 T00360033  RH  098%=      5-min Rain = 0
KCH1 071858Z 35005KT 04/03 A3027 RMK A01 T00360033  RH  098%=      5-min Rain = 0
KCH1 071859Z 35007KT 04/03 A3027 RMK A01 T00360033  RH  098%=      5-min Rain = 0.01
KCH1 071900Z 35006KT 04/03 A3027 RMK A01 T00360033  RH  098%=      5-min Rain = 0
KCH1 071901Z 35007KT 04/03 A3027 RMK A01 T00360033  RH  098%=      5-min Rain = 0
KCH1 071902Z 35005KT 04/03 A3027 RMK A01 T00360033  RH  098%=      5-min Rain = 0
KCH1 071903Z 35008KT 04/03 A3027 RMK A01 T00350031  RH  098%=      5-min Rain = 0
KCH1 071904Z 00011KT 03/03 A3026 RMK A01 T00340031  RH  098%=      5-min Rain = 0
KCH1 071905Z 36010KT 03/03 A3026 RMK A01 T00340030  RH  098%=      5-min Rain = 0
KCH1 071906Z 00008KT 03/03 A3026 RMK A01 T00330029  RH  097%=      5-min Rain = 0.01
KCH1 071907Z 00007KT 03/03 A3026 RMK A01 T00330030  RH  097%=      5-min Rain = 0
KCH1 071908Z 01007G12KT 03/03 A3026 RMK A01 T00330030  RH  098%=      5-min Rain = 0
KCH1 071909Z 36008KT 03/03 A3026 RMK A01 T00330030  RH  098%=      5-min Rain = 0
KCH1 071910Z 36009KT 03/03 A3026 RMK A01 T00330030  RH  098%=      5-min Rain = 0
KCH1 071911Z 00009G14KT 03/03 A3026 RMK A01 T00330029  RH  098%=      5-min Rain = 0
KCH1 071912Z 00008KT 03/03 A3026 RMK A01 T00330029  RH  098%=      5-min Rain = 0
KCH1 071913Z 00008KT 03/03 A3026 RMK A01 T00330030  RH  098%=      5-min Rain = 0
KCH1 071914Z 36009KT 03/03 A3026 RMK A01 T00330030  RH  098%=      5-min Rain = 0
KCH1 071915Z 36008KT 03/03 A3026 RMK A01 T00330030  RH  098%=      5-min Rain = 0
KCH1 071916Z 00007KT 03/03 A3025 RMK A01 T00330029  RH  098%=      5-min Rain = 0
KCH1 071917Z 36009KT 03/03 A3025 RMK A01 T00320029  RH  098%=      5-min Rain = 0.01
KCH1 071918Z 00007KT 03/03 A3025 RMK A01 T00320029  RH  098%=      5-min Rain = 0
KCH1 071919Z 36008KT 03/03 A3025 RMK A01 T00320029  RH  098%=      5-min Rain = 0
KCH1 071920Z 00008KT 03/03 A3025 RMK A01 T00320029  RH  098%=      5-min Rain = 0
KCH1 071921Z 36011KT 03/03 A3025 RMK A01 T00320029  RH  098%=      5-min Rain = 0
KCH1 071922Z 00009KT 03/03 A3025 RMK A01 T00320028  RH  098%=      5-min Rain = 0
KCH1 071923Z 00009KT 03/03 A3025 RMK A01 T00310028  RH  098%=      5-min Rain = 0
KCH1 071924Z 35010KT 03/03 A3025 RMK A01 T00320028  RH  098%=      5-min Rain = 0
KCH1 071925Z 36010KT 03/03 A3025 RMK A01 T00310028  RH  098%=      5-min Rain = 0
KCH1 071926Z 36010KT 03/03 A3025 RMK A01 T00310028  RH  098%=      5-min Rain = 0
KCH1 071927Z 36008KT 03/03 A3025 RMK A01 T00310027  RH  097%=      5-min Rain = 0
KCH1 071928Z 00008KT 03/03 A3025 RMK A01 T00310027  RH  098%=      5-min Rain = 0
KCH1 071929Z 35010KT 03/03 A3025 RMK A01 T00310027  RH  098%=      5-min Rain = 0.01
KCH1 071930Z 36010KT 03/03 A3025 RMK A01 T00310027  RH  097%=      5-min Rain = 0
KCH1 071931Z 01010KT 03/03 A3024 RMK A01 T00300026  RH  097%=      5-min Rain = 0
KCH1 071932Z 00009KT 03/03 A3024 RMK A01 T00300026  RH  097%=      5-min Rain = 0
KCH1 071933Z 00010KT 03/03 A3024 RMK A01 T00300026  RH  097%=      5-min Rain = 0
KCH1 071934Z 01011KT 03/03 A3024 RMK A01 T00290025  RH  097%=      5-min Rain = 0
KCH1 071935Z 01009KT 03/03 A3024 RMK A01 T00300025  RH  097%=      5-min Rain = 0
KCH1 071936Z 02007KT 03/03 A3024 RMK A01 T00300025  RH  097%=      5-min Rain = 0
KCH1 071937Z 01009KT 03/03 A3024 RMK A01 T00300026  RH  097%=      5-min Rain = 0
KCH1 071938Z 01010KT 03/03 A3024 RMK A01 T00300026  RH  097%=      5-min Rain = 0
KCH1 071939Z 01010KT 03/03 A3023 RMK A01 T00300026  RH  097%=      5-min Rain = 0
KCH1 071940Z 36010KT 03/03 A3023 RMK A01 T00300026  RH  097%=      5-min Rain = 0
KCH1 071941Z 01008KT 03/03 A3023 RMK A01 T00300026  RH  097%=      5-min Rain = 0
KCH1 071942Z 01008KT 03/03 A3023 RMK A01 T00300026  RH  097%=      5-min Rain = 0
KCH1 071943Z 02005KT 03/03 A3023 RMK A01 T00300027  RH  097%=      5-min Rain = 0
KCH1 071944Z 02006KT 03/03 A3023 RMK A01 T00310027  RH  098%=      5-min Rain = 0.01
KCH1 071945Z 01006KT 03/03 A3023 RMK A01 T00310028  RH  098%=      5-min Rain = 0
KCH1 071946Z 01010KT 03/03 A3023 RMK A01 T00310028  RH  098%=      5-min Rain = 0
KCH1 071947Z 01010KT 03/03 A3023 RMK A01 T00310028  RH  098%=      5-min Rain = 0
KCH1 071948Z 01009KT 03/03 A3023 RMK A01 T00300027  RH  098%=      5-min Rain = 0
KCH1 071949Z 01011KT 03/03 A3023 RMK A01 T00300027  RH  098%=      5-min Rain = 0
KCH1 071950Z 01009KT 03/03 A3022 RMK A01 T00300026  RH  098%=      5-min Rain = 0
KCH1 071951Z 01009KT 03/03 A3022 RMK A01 T00300026  RH  097%=      5-min Rain = 0
KCH1 071952Z 02008KT 03/03 A3022 RMK A01 T00300026  RH  097%=      5-min Rain = 0
KCH1 071953Z 02007KT 03/03 A3022 RMK A01 T00300026  RH  098%=      5-min Rain = 0
KCH1 071954Z 02005KT 03/03 A3022 RMK A01 T00300026  RH  098%=      5-min Rain = 0
KCH1 071955Z 02008KT 03/03 A3022 RMK A01 T00300027  RH  098%=      5-min Rain = 0
KCH1 071956Z 02007KT 03/03 A3022 RMK A01 T00310027  RH  098%=      5-min Rain = 0
KCH1 071957Z 03006KT 03/03 A3022 RMK A01 T00310027  RH  098%=      5-min Rain = 0.01
KCH1 071958Z 03006KT 03/03 A3022 RMK A01 T00310028  RH  098%=      5-min Rain = 0
KCH1 071959Z 03006KT 03/03 A3022 RMK A01 T00320029  RH  098%=      5-min Rain = 0
KCH1 072000Z 04008KT 03/03 A3022 RMK A01 T00320029  RH  098%=      5-min Rain = 0
KCH1 072001Z 03007KT 03/03 A3021 RMK A01 T00320029  RH  098%=      5-min Rain = 0
KCH1 072002Z 03006KT 03/03 A3021 RMK A01 T00320029  RH  098%=      5-min Rain = 0
KCH1 072003Z 03008KT 03/03 A3021 RMK A01 T00320029  RH  098%=      5-min Rain = 0
KCH1 072004Z 03008KT 03/03 A3021 RMK A01 T00320029  RH  098%=      5-min Rain = 0
KCH1 072005Z 02006KT 03/03 A3021 RMK A01 T00320029  RH  098%=      5-min Rain = 0
KCH1 072006Z 03005KT 03/03 A3021 RMK A01 T00320029  RH  098%=      5-min Rain = 0
KCH1 072007Z 02005KT 03/03 A3021 RMK A01 T00320029  RH  098%=      5-min Rain = 0
KCH1 072008Z 02005KT 03/03 A3021 RMK A01 T00320029  RH  098%=      5-min Rain = 0
KCH1 072009Z 03006KT 03/03 A3021 RMK A01 T00320029  RH  098%=      5-min Rain = 0
KCH1 072010Z 03005KT 03/03 A3021 RMK A01 T00320030  RH  098%=      5-min Rain = 0
KCH1 072011Z 03009KT 03/03 A3021 RMK A01 T00330030  RH  098%=      5-min Rain = 0
KCH1 072012Z 02008KT 03/03 A3021 RMK A01 T00330030  RH  098%=      5-min Rain = 0
KCH1 072013Z 02006KT 03/03 A3021 RMK A01 T00320029  RH  098%=      5-min Rain = 0
KCH1 072014Z 03005KT 03/03 A3021 RMK A01 T00320029  RH  098%=      5-min Rain = 0.01
KCH1 072015Z 03006KT 03/03 A3021 RMK A01 T00330030  RH  098%=      5-min Rain = 0
KCH1 072016Z 03007KT 03/03 A3021 RMK A01 T00330030  RH  098%=      5-min Rain = 0
KCH1 072017Z 03008KT 03/03 A3021 RMK A01 T00330030  RH  098%=      5-min Rain = 0
KCH1 072018Z 03009KT 03/03 A3021 RMK A01 T00330030  RH  098%=      5-min Rain = 0
KCH1 072019Z 03008KT 03/03 A3021 RMK A01 T00330030  RH  098%=      5-min Rain = 0
KCH1 072020Z 03008KT 03/03 A3021 RMK A01 T00330029  RH  097%=      5-min Rain = 0
KCH1 072021Z 02009KT 03/03 A3021 RMK A01 T00330029  RH  097%=      5-min Rain = 0
KCH1 072022Z 02009G14KT 03/03 A3021 RMK A01 T00330029  RH  097%=      5-min Rain = 0
KCH1 072023Z 03010KT 03/03 A3022 RMK A01 T00330029  RH  097%=      5-min Rain = 0
KCH1 072024Z 03007G12KT 03/03 A3022 RMK A01 T00330028  RH  097%=      5-min Rain = 0
KCH1 072025Z 04008KT 03/03 A3022 RMK A01 T00330029  RH  097%=      5-min Rain = 0
KCH1 072026Z 03006KT 03/03 A3022 RMK A01 T00330029  RH  097%=      5-min Rain = 0
KCH1 072027Z 03007KT 03/03 A3022 RMK A01 T00330029  RH  097%=      5-min Rain = 0
KCH1 072028Z 02006KT 03/03 A3022 RMK A01 T00340030  RH  097%=      5-min Rain = 0
KCH1 072029Z 03008KT 04/03 A3022 RMK A01 T00350031  RH  098%=      5-min Rain = 0
KCH1 072030Z 03008KT 03/03 A3022 RMK A01 T00340030  RH  097%=      5-min Rain = 0
KCH1 072031Z 03009KT 03/03 A3022 RMK A01 T00340030  RH  097%=      5-min Rain = 0.01
KCH1 072032Z 02008KT 03/03 A3022 RMK A01 T00340030  RH  097%=      5-min Rain = 0
KCH1 072033Z 03004KT 03/03 A3022 RMK A01 T00340029  RH  097%=      5-min Rain = 0
KCH1 072034Z 01007KT 03/03 A3022 RMK A01 T00340030  RH  097%=      5-min Rain = 0
KCH1 072035Z 02007KT 03/03 A3022 RMK A01 T00340030  RH  097%=      5-min Rain = 0
KCH1 072036Z 03005KT 03/03 A3022 RMK A01 T00340030  RH  097%=      5-min Rain = 0
KCH1 072037Z 03005KT 03/03 A3023 RMK A01 T00340030  RH  097%=      5-min Rain = 0
KCH1 072038Z 03005KT 03/03 A3023 RMK A01 T00340030  RH  097%=      5-min Rain = 0
KCH1 072039Z 02003KT 03/03 A3023 RMK A01 T00340030  RH  097%=      5-min Rain = 0
KCH1 072040Z 02003KT 03/03 A3023 RMK A01 T00340031  RH  097%=      5-min Rain = 0
KCH1 072041Z 02005KT 03/03 A3023 RMK A01 T00340031  RH  098%=      5-min Rain = 0
KCH1 072042Z 01006KT 03/03 A3023 RMK A01 T00340031  RH  098%=      5-min Rain = 0
KCH1 072043Z 02007KT 03/03 A3023 RMK A01 T00340030  RH  097%=      5-min Rain = 0
KCH1 072044Z 04006G12KT 03/03 A3024 RMK A01 T00340030  RH  097%=      5-min Rain = 0
KCH1 072045Z 03010KT 03/03 A3024 RMK A01 T00330029  RH  097%=      5-min Rain = 0
KCH1 072046Z 02007KT 03/03 A3024 RMK A01 T00320028  RH  097%=      5-min Rain = 0
KCH1 072047Z 02007KT 03/03 A3024 RMK A01 T00320028  RH  097%=      5-min Rain = 0
KCH1 072048Z 03006KT 03/03 A3024 RMK A01 T00320027  RH  097%=      5-min Rain = 0
KCH1 072049Z 03006KT 03/03 A3024 RMK A01 T00320027  RH  097%=      5-min Rain = 0.01
KCH1 072050Z 02005KT 03/03 A3024 RMK A01 T00320028  RH  097%=      5-min Rain = 0
KCH1 072051Z 02004KT 03/03 A3024 RMK A01 T00330028  RH  097%=      5-min Rain = 0
KCH1 072052Z 01004KT 03/03 A3024 RMK A01 T00330029  RH  097%=      5-min Rain = 0
KCH1 072053Z 01007KT 03/03 A3023 RMK A01 T00330029  RH  097%=      5-min Rain = 0
KCH1 072054Z 01007KT 03/03 A3023 RMK A01 T00330029  RH  097%=      5-min Rain = 0
KCH1 072055Z 00005KT 03/03 A3023 RMK A01 T00320028  RH  097%=      5-min Rain = 0
KCH1 072056Z 01005KT 03/03 A3023 RMK A01 T00330029  RH  097%=      5-min Rain = 0
KCH1 072057Z 35006KT 03/03 A3023 RMK A01 T00330029  RH  097%=      5-min Rain = 0
KCH1 072058Z 35008KT 03/03 A3023 RMK A01 T00330029  RH  098%=      5-min Rain = 0.01
KCH1 072059Z 00009KT 03/03 A3023 RMK A01 T00320028  RH  097%=      5-min Rain = 0
KCH1 072100Z 36009KT 03/03 A3023 RMK A01 T00320028  RH  097%=      5-min Rain = 0
KCH1 072101Z 01008KT 03/03 A3023 RMK A01 T00310027  RH  097%=      5-min Rain = 0
KCH1 072102Z 01008KT 03/03 A3023 RMK A01 T00310027  RH  097%=      5-min Rain = 0
KCH1 072103Z 01007KT 03/03 A3023 RMK A01 T00310027  RH  097%=      5-min Rain = 0
KCH1 072104Z 35006KT 03/03 A3023 RMK A01 T00310027  RH  097%=      5-min Rain = 0
KCH1 072105Z 00009KT 03/03 A3023 RMK A01 T00310027  RH  097%=      5-min Rain = 0
KCH1 072106Z 00009KT 03/03 A3023 RMK A01 T00310026  RH  097%=      5-min Rain = 0
KCH1 072107Z 00009KT 03/03 A3023 RMK A01 T00310026  RH  097%=      5-min Rain = 0
KCH1 072108Z 00007KT 03/03 A3023 RMK A01 T00310026  RH  097%=      5-min Rain = 0
KCH1 072109Z 00008KT 03/03 A3023 RMK A01 T00310026  RH  097%=      5-min Rain = 0.01
KCH1 072110Z 35007KT 03/03 A3023 RMK A01 T00310026  RH  097%=      5-min Rain = 0
KCH1 072111Z 36007KT 03/03 A3023 RMK A01 T00310027  RH  097%=      5-min Rain = 0
KCH1 072112Z 00009KT 03/03 A3023 RMK A01 T00310026  RH  097%=      5-min Rain = 0
KCH1 072113Z 02006KT 03/03 A3023 RMK A01 T00310026  RH  097%=      5-min Rain = 0
KCH1 072114Z 01005KT 03/03 A3023 RMK A01 T00310026  RH  097%=      5-min Rain = 0
KCH1 072115Z 01006KT 03/03 A3023 RMK A01 T00310027  RH  097%=      5-min Rain = 0
KCH1 072116Z 00005KT 03/03 A3023 RMK A01 T00310027  RH  097%=      5-min Rain = 0.01
KCH1 072117Z 01005KT 03/03 A3023 RMK A01 T00310027  RH  097%=      5-min Rain = 0
KCH1 072118Z 35006KT 03/03 A3023 RMK A01 T00310028  RH  097%=      5-min Rain = 0
KCH1 072119Z 35006KT 03/03 A3023 RMK A01 T00310028  RH  097%=      5-min Rain = 0
KCH1 072120Z 35006KT 03/03 A3023 RMK A01 T00310027  RH  097%=      5-min Rain = 0
KCH1 072121Z 36005KT 03/03 A3023 RMK A01 T00310028  RH  098%=      5-min Rain = 0
KCH1 072122Z 36007KT 03/03 A3023 RMK A01 T00320028  RH  098%=      5-min Rain = 0.01
KCH1 072123Z 35007KT 03/03 A3023 RMK A01 T00320028  RH  098%=      5-min Rain = 0
KCH1 072124Z 35007KT 03/03 A3023 RMK A01 T00320028  RH  098%=      5-min Rain = 0
KCH1 072125Z 00007KT 03/03 A3023 RMK A01 T00310027  RH  098%=      5-min Rain = 0
KCH1 072126Z 35006KT 03/03 A3023 RMK A01 T00310027  RH  098%=      5-min Rain = 0
KCH1 072127Z 36007KT 03/03 A3023 RMK A01 T00310027  RH  098%=      5-min Rain = 0.01
KCH1 072128Z 35006KT 03/03 A3023 RMK A01 T00310027  RH  098%=      5-min Rain = 0
KCH1 072129Z 36007KT 03/03 A3023 RMK A01 T00310027  RH  098%=      5-min Rain = 0
KCH1 072130Z 36006KT 03/03 A3023 RMK A01 T00310027  RH  098%=      5-min Rain = 0
KCH1 072131Z 00007KT 03/03 A3023 RMK A01 T00310027  RH  098%=      5-min Rain = 0
KCH1 072132Z 01005KT 03/03 A3023 RMK A01 T00300027  RH  098%=      5-min Rain = 0
KCH1 072133Z 01008KT 03/03 A3023 RMK A01 T00300027  RH  098%=      5-min Rain = 0
KCH1 072134Z 00006KT 03/03 A3023 RMK A01 T00300027  RH  098%=      5-min Rain = 0
KCH1 072135Z 00005KT 03/03 A3023 RMK A01 T00300027  RH  098%=      5-min Rain = 0.01
KCH1 072136Z 36008KT 03/03 A3023 RMK A01 T00300027  RH  098%=      5-min Rain = 0
KCH1 072137Z 36009KT 03/03 A3023 RMK A01 T00300026  RH  098%=      5-min Rain = 0
KCH1 072138Z 01008KT 03/03 A3023 RMK A01 T00300026  RH  097%=      5-min Rain = 0
KCH1 072139Z 00007KT 03/03 A3023 RMK A01 T00300026  RH  098%=      5-min Rain = 0
KCH1 072140Z 36005KT 03/03 A3023 RMK A01 T00300026  RH  098%=      5-min Rain = 0
KCH1 072141Z 01007KT 03/03 A3023 RMK A01 T00300027  RH  098%=      5-min Rain = 0
KCH1 072142Z 01006KT 03/03 A3023 RMK A01 T00300027  RH  098%=      5-min Rain = 0
KCH1 072143Z 00007KT 03/03 A3023 RMK A01 T00300027  RH  098%=      5-min Rain = 0.01
KCH1 072144Z 01008KT 03/03 A3023 RMK A01 T00300027  RH  098%=      5-min Rain = 0
KCH1 072145Z 36007KT 03/03 A3023 RMK A01 T00300026  RH  098%=      5-min Rain = 0
KCH1 072146Z 36006KT 03/03 A3023 RMK A01 T00290026  RH  098%=      5-min Rain = 0
KCH1 072147Z 00007KT 03/03 A3023 RMK A01 T00290026  RH  098%=      5-min Rain = 0
KCH1 072148Z 03006KT 03/03 A3023 RMK A01 T00300026  RH  098%=      5-min Rain = 0
KCH1 072149Z 00007KT 03/03 A3023 RMK A01 T00290025  RH  098%=      5-min Rain = 0
KCH1 072150Z 35006G11KT 03/03 A3023 RMK A01 T00290025  RH  098%=      5-min Rain = 0
KCH1 072151Z 00007KT 03/03 A3023 RMK A01 T00290026  RH  097%=      5-min Rain = 0
KCH1 072152Z 02004KT 03/03 A3023 RMK A01 T00290025  RH  097%=      5-min Rain = 0
KCH1 072153Z 02006KT 03/03 A3023 RMK A01 T00300026  RH  098%=      5-min Rain = 0
KCH1 072154Z 02005KT 03/03 A3023 RMK A01 T00300026  RH  098%=      5-min Rain = 0
KCH1 072155Z 02008KT 03/03 A3023 RMK A01 T00300026  RH  098%=      5-min Rain = 0
KCH1 072156Z 03007KT 03/03 A3023 RMK A01 T00290025  RH  097%=      5-min Rain = 0
KCH1 072157Z 02007KT 03/03 A3023 RMK A01 T00290025  RH  097%=      5-min Rain = 0.01
KCH1 072158Z 02007KT 03/03 A3022 RMK A01 T00280025  RH  097%=      5-min Rain = 0
KCH1 072159Z 02005KT 03/03 A3022 RMK A01 T00290025  RH  097%=      5-min Rain = 0
KCH1 072200Z 02006KT 03/03 A3022 RMK A01 T00290025  RH  097%=      5-min Rain = 0
KCH1 072201Z 02007KT 03/03 A3022 RMK A01 T00290025  RH  098%=      5-min Rain = 0
KCH1 072202Z 02007KT 03/03 A3022 RMK A01 T00290026  RH  098%=      5-min Rain = 0
KCH1 072203Z 02006KT 03/03 A3022 RMK A01 T00290026  RH  098%=      5-min Rain = 0
KCH1 072204Z 03005KT 03/03 A3022 RMK A01 T00290026  RH  097%=      5-min Rain = 0
KCH1 072205Z 03007KT 03/03 A3022 RMK A01 T00290026  RH  098%=      5-min Rain = 0
KCH1 072206Z 02007KT 03/03 A3022 RMK A01 T00290026  RH  098%=      5-min Rain = 0
KCH1 072207Z 02006KT 03/03 A3022 RMK A01 T00290026  RH  098%=      5-min Rain = 0
KCH1 072208Z 02007KT 03/03 A3022 RMK A01 T00290025  RH  098%=      5-min Rain = 0
KCH1 072209Z 02006KT 03/03 A3022 RMK A01 T00290026  RH  098%=      5-min Rain = 0
KCH1 072210Z 01005KT 03/03 A3022 RMK A01 T00290026  RH  098%=      5-min Rain = 0
KCH1 072211Z 03003KT 03/03 A3022 RMK A01 T00290026  RH  098%=      5-min Rain = 0
KCH1 072212Z 03003KT 03/03 A3022 RMK A01 T00290026  RH  098%=      5-min Rain = 0
KCH1 072213Z 04003KT 03/03 A3022 RMK A01 T00290026  RH  098%=      5-min Rain = 0
KCH1 072214Z 03002KT 03/03 A3022 RMK A01 T00300027  RH  098%=      5-min Rain = 0
KCH1 072215Z 03004KT 03/03 A3022 RMK A01 T00300027  RH  098%=      5-min Rain = 0
KCH1 072216Z 04005KT 03/03 A3022 RMK A01 T00300027  RH  098%=      5-min Rain = 0
KCH1 072217Z 03005KT 03/03 A3022 RMK A01 T00300027  RH  098%=      5-min Rain = 0
KCH1 072218Z 05005KT 03/03 A3022 RMK A01 T00300027  RH  098%=      5-min Rain = 0
KCH1 072219Z 04005KT 03/03 A3022 RMK A01 T00300027  RH  098%=      5-min Rain = 0
KCH1 072220Z 03006KT 03/03 A3022 RMK A01 T00300027  RH  098%=      5-min Rain = 0.01
KCH1 072221Z 04005KT 03/03 A3023 RMK A01 T00300027  RH  098%=      5-min Rain = 0
KCH1 072222Z 03004KT 03/03 A3023 RMK A01 T00300027  RH  098%=      5-min Rain = 0
KCH1 072223Z 03005KT 03/03 A3023 RMK A01 T00300027  RH  098%=      5-min Rain = 0
KCH1 072224Z 03005KT 03/03 A3023 RMK A01 T00300027  RH  098%=      5-min Rain = 0
KCH1 072225Z 04006KT 03/03 A3023 RMK A01 T00300026  RH  098%=      5-min Rain = 0
KCH1 072226Z 04007KT 03/03 A3023 RMK A01 T00290026  RH  098%=      5-min Rain = 0
KCH1 072227Z 03005KT 03/03 A3022 RMK A01 T00300027  RH  098%=      5-min Rain = 0
KCH1 072228Z 03005KT 03/03 A3022 RMK A01 T00290026  RH  098%=      5-min Rain = 0
KCH1 072229Z 04005KT 03/03 A3022 RMK A01 T00290026  RH  098%=      5-min Rain = 0
KCH1 072230Z 03005KT 03/03 A3022 RMK A01 T00300027  RH  098%=      5-min Rain = 0
KCH1 072231Z 03004KT 03/03 A3022 RMK A01 T00290026  RH  098%=      5-min Rain = 0
KCH1 072232Z 02004KT 03/03 A3022 RMK A01 T00300027  RH  098%=      5-min Rain = 0
KCH1 072233Z 02006KT 03/03 A3022 RMK A01 T00300027  RH  098%=      5-min Rain = 0
KCH1 072234Z 02007KT 03/03 A3022 RMK A01 T00300027  RH  098%=      5-min Rain = 0
KCH1 072235Z 03006KT 03/03 A3022 RMK A01 T00300027  RH  098%=      5-min Rain = 0
KCH1 072236Z 02005KT 03/03 A3022 RMK A01 T00290026  RH  098%=      5-min Rain = 0
KCH1 072237Z 02006KT 03/03 A3022 RMK A01 T00290027  RH  098%=      5-min Rain = 0
KCH1 072238Z 02006KT 03/03 A3022 RMK A01 T00290027  RH  098%=      5-min Rain = 0
KCH1 072239Z 02007KT 03/03 A3022 RMK A01 T00300027  RH  098%=      5-min Rain = 0.01
KCH1 072240Z 03006KT 03/03 A3022 RMK A01 T00290027  RH  098%=      5-min Rain = 0
KCH1 072241Z 03007KT 03/03 A3022 RMK A01 T00290026  RH  098%=      5-min Rain = 0
KCH1 072242Z 03006KT 03/03 A3022 RMK A01 T00290026  RH  098%=      5-min Rain = 0
KCH1 072243Z 03008KT 03/03 A3022 RMK A01 T00290026  RH  098%=      5-min Rain = 0
KCH1 072244Z 03007KT 03/03 A3022 RMK A01 T00290026  RH  098%=      5-min Rain = 0
KCH1 072245Z 03006KT 03/03 A3022 RMK A01 T00290027  RH  098%=      5-min Rain = 0
KCH1 072246Z 03006KT 03/03 A3022 RMK A01 T00290026  RH  098%=      5-min Rain = 0
KCH1 072247Z 03007KT 03/03 A3022 RMK A01 T00290026  RH  098%=      5-min Rain = 0
KCH1 072248Z 02009KT 03/03 A3022 RMK A01 T00290026  RH  098%=      5-min Rain = 0
KCH1 072249Z 03009KT 03/03 A3022 RMK A01 T00290027  RH  098%=      5-min Rain = 0
KCH1 072250Z 03007KT 03/03 A3022 RMK A01 T00290026  RH  098%=      5-min Rain = 0
KCH1 072251Z 03007KT 03/03 A3022 RMK A01 T00290026  RH  098%=      5-min Rain = 0
KCH1 072252Z 03008KT 03/03 A3022 RMK A01 T00290027  RH  098%=      5-min Rain = 0
KCH1 072253Z 03005KT 03/03 A3022 RMK A01 T00290026  RH  098%=      5-min Rain = 0.01
KCH1 072254Z 02006KT 03/03 A3022 RMK A01 T00290026  RH  098%=      5-min Rain = 0
KCH1 072255Z 04008KT 03/03 A3022 RMK A01 T00290027  RH  098%=      5-min Rain = 0
KCH1 072256Z 04007KT 03/03 A3022 RMK A01 T00290026  RH  098%=      5-min Rain = 0
KCH1 072257Z 03006KT 03/03 A3022 RMK A01 T00290026  RH  098%=      5-min Rain = 0
KCH1 072258Z 03006KT 03/03 A3022 RMK A01 T00290026  RH  098%=      5-min Rain = 0
KCH1 072259Z 03005G10KT 03/03 A3022 RMK A01 T00290026  RH  098%=      5-min Rain = 0
KCH1 072300Z 03007KT 03/03 A3022 RMK A01 T00290026  RH  098%=      5-min Rain = 0
KCH1 072301Z 02006KT 03/03 A3022 RMK A01 T00290026  RH  098%=      5-min Rain = 0
KCH1 072302Z 02005KT 03/03 A3022 RMK A01 T00290026  RH  098%=      5-min Rain = 0
KCH1 072303Z 02006KT 03/03 A3022 RMK A01 T00290027  RH  098%=      5-min Rain = 0
KCH1 072304Z 03006KT 03/03 A3022 RMK A01 T00290027  RH  098%=      5-min Rain = 0
KCH1 072305Z 03008KT 03/03 A3022 RMK A01 T00290026  RH  098%=      5-min Rain = 0
KCH1 072306Z 02006KT 03/03 A3022 RMK A01 T00290027  RH  098%=      5-min Rain = 0
KCH1 072307Z 02005KT 03/03 A3023 RMK A01 T00290027  RH  098%=      5-min Rain = 0
KCH1 072308Z 02006KT 03/03 A3023 RMK A01 T00290027  RH  098%=      5-min Rain = 0
KCH1 072309Z 02006KT 03/03 A3023 RMK A01 T00290027  RH  098%=      5-min Rain = 0
KCH1 072310Z 02008KT 03/03 A3023 RMK A01 T00290026  RH  098%=      5-min Rain = 0
KCH1 072311Z 02008KT 03/03 A3023 RMK A01 T00290026  RH  098%=      5-min Rain = 0
KCH1 072312Z 02009KT 03/03 A3023 RMK A01 T00290026  RH  098%=      5-min Rain = 0
KCH1 072313Z 02010KT 03/03 A3023 RMK A01 T00290026  RH  098%=      5-min Rain = 0
KCH1 072314Z 02008KT 03/03 A3023 RMK A01 T00280025  RH  098%=      5-min Rain = 0
KCH1 072315Z 03010KT 03/03 A3023 RMK A01 T00280025  RH  098%=      5-min Rain = 0.01
KCH1 072316Z 02007KT 03/03 A3023 RMK A01 T00280025  RH  098%=      5-min Rain = 0
KCH1 072317Z 03008KT 03/03 A3023 RMK A01 T00280025  RH  098%=      5-min Rain = 0
KCH1 072318Z 03008KT 03/03 A3023 RMK A01 T00280025  RH  098%=      5-min Rain = 0
KCH1 072319Z 02008KT 03/03 A3023 RMK A01 T00280025  RH  098%=      5-min Rain = 0
KCH1 072320Z 02006KT 03/03 A3023 RMK A01 T00280025  RH  098%=      5-min Rain = 0
KCH1 072321Z 02007KT 03/03 A3023 RMK A01 T00280025  RH  098%=      5-min Rain = 0
KCH1 072322Z 02007KT 03/03 A3023 RMK A01 T00280025  RH  098%=      5-min Rain = 0
KCH1 072323Z 02005KT 03/03 A3023 RMK A01 T00280026  RH  098%=      5-min Rain = 0
KCH1 072324Z 02006KT 03/03 A3023 RMK A01 T00280026  RH  098%=      5-min Rain = 0
KCH1 072325Z 02006KT 03/03 A3023 RMK A01 T00280025  RH  098%=      5-min Rain = 0
KCH1 072326Z 01006KT 03/03 A3023 RMK A01 T00280026  RH  098%=      5-min Rain = 0
KCH1 072327Z 01006KT 03/03 A3023 RMK A01 T00280026  RH  098%=      5-min Rain = 0
KCH1 072328Z 02007KT 03/03 A3023 RMK A01 T00280026  RH  098%=      5-min Rain = 0
KCH1 072329Z 01008KT 03/03 A3023 RMK A01 T00280026  RH  098%=      5-min Rain = 0
KCH1 072330Z 01007KT 03/03 A3024 RMK A01 T00280026  RH  098%=      5-min Rain = 0.01
KCH1 072331Z 01007KT 03/03 A3024 RMK A01 T00280026  RH  098%=      5-min Rain = 0
KCH1 072332Z 01008KT 03/03 A3024 RMK A01 T00280026  RH  098%=      5-min Rain = 0
KCH1 072333Z 01008KT 03/03 A3023 RMK A01 T00280026  RH  098%=      5-min Rain = 0
KCH1 072334Z 02008KT 03/03 A3024 RMK A01 T00280025  RH  098%=      5-min Rain = 0
KCH1 072335Z 01008KT 03/03 A3024 RMK A01 T00280025  RH  098%=      5-min Rain = 0
KCH1 072336Z 00008KT 03/03 A3024 RMK A01 T00280025  RH  098%=      5-min Rain = 0
KCH1 072337Z 00008KT 03/03 A3024 RMK A01 T00280025  RH  098%=      5-min Rain = 0
KCH1 072338Z 36006KT 03/03 A3024 RMK A01 T00280025  RH  098%=      5-min Rain = 0
KCH1 072339Z 36006KT 03/03 A3024 RMK A01 T00280025  RH  098%=      5-min Rain = 0
KCH1 072340Z 01007KT 03/03 A3025 RMK A01 T00280025  RH  098%=      5-min Rain = 0.01
KCH1 072341Z 00008KT 03/03 A3025 RMK A01 T00280025  RH  098%=      5-min Rain = 0
KCH1 072342Z 36006KT 03/02 A3025 RMK A01 T00270024  RH  098%=      5-min Rain = 0
KCH1 072343Z 00006KT 03/02 A3025 RMK A01 T00270024  RH  098%=      5-min Rain = 0
KCH1 072344Z 36005KT 03/02 A3025 RMK A01 T00270024  RH  098%=      5-min Rain = 0
KCH1 072345Z 36005KT 03/02 A3025 RMK A01 T00270024  RH  098%=      5-min Rain = 0.01
KCH1 072346Z 00006KT 03/03 A3025 RMK A01 T00270025  RH  098%=      5-min Rain = 0
KCH1 072347Z 36005KT 03/03 A3025 RMK A01 T00270025  RH  098%=      5-min Rain = 0
KCH1 072348Z 35005KT 03/03 A3025 RMK A01 T00270025  RH  098%=      5-min Rain = 0
KCH1 072349Z 35005KT 03/03 A3025 RMK A01 T00280025  RH  098%=      5-min Rain = 0.01
KCH1 072350Z 35005KT 03/03 A3025 RMK A01 T00270025  RH  098%=      5-min Rain = 0
KCH1 072351Z 36005KT 03/03 A3025 RMK A01 T00270025  RH  099%=      5-min Rain = 0
KCH1 072352Z 35005KT 03/03 A3025 RMK A01 T00280025  RH  099%=      5-min Rain = 0
KCH1 072353Z 34005KT 03/03 A3026 RMK A01 T00270025  RH  099%=      5-min Rain = 0.01
KCH1 072354Z 34005KT 03/03 A3026 RMK A01 T00280026  RH  099%=      5-min Rain = 0
KCH1 072355Z 35006KT 03/03 A3026 RMK A01 T00270025  RH  099%=      5-min Rain = 0
KCH1 072356Z 34006KT 03/03 A3026 RMK A01 T00270025  RH  099%=      5-min Rain = 0
KCH1 072357Z 34006KT 03/03 A3026 RMK A01 T00270025  RH  099%=      5-min Rain = 0
KCH1 072358Z 34008KT 03/03 A3026 RMK A01 T00270025  RH  099%=      5-min Rain = 0.01
KCH1 072359Z 35008KT 03/03 A3026 RMK A01 T00270025  RH  099%=      5-min Rain = 0
KCH1 080000Z 00007KT 03/03 A3026 RMK A01 T00270025  RH  099%=      5-min Rain = 0
KCH1 080001Z 36007KT 03/03 A3026 RMK A01 T00270025  RH  099%=      5-min Rain = 0
KCH1 080002Z 00009KT 03/03 A3026 RMK A01 T00270025  RH  099%=      5-min Rain = 0.01
KCH1 080003Z 36009KT 03/03 A3026 RMK A01 T00270025  RH  099%=      5-min Rain = 0
KCH1 080004Z 01005KT 03/02 A3026 RMK A01 T00260024  RH  099%=      5-min Rain = 0
KCH1 080005Z 01007KT 03/02 A3026 RMK A01 T00260024  RH  099%=      5-min Rain = 0
KCH1 080006Z 01007KT 03/02 A3026 RMK A01 T00260024  RH  099%=      5-min Rain = 0
KCH1 080007Z 01008KT 03/02 A3026 RMK A01 T00260024  RH  099%=      5-min Rain = 0
KCH1 080008Z 01008KT 03/02 A3026 RMK A01 T00260024  RH  099%=      5-min Rain = 0
KCH1 080009Z 01008KT 03/02 A3026 RMK A01 T00260024  RH  099%=      5-min Rain = 0.01
KCH1 080010Z 01007KT 03/02 A3026 RMK A01 T00260024  RH  099%=      5-min Rain = 0
KCH1 080011Z 01005KT 03/03 A3026 RMK A01 T00260025  RH  099%=      5-min Rain = 0
KCH1 080012Z 01006KT 03/02 A3026 RMK A01 T00260024  RH  099%=      5-min Rain = 0
KCH1 080013Z 00006KT 03/03 A3026 RMK A01 T00260025  RH  099%=      5-min Rain = 0
KCH1 080014Z 00005KT 03/02 A3026 RMK A01 T00260024  RH  099%=      5-min Rain = 0
KCH1 080015Z 35006KT 03/02 A3026 RMK A01 T00260024  RH  099%=      5-min Rain = 0.01
KCH1 080016Z 00005KT 03/03 A3026 RMK A01 T00260025  RH  099%=      5-min Rain = 0
KCH1 080017Z 36006KT 03/03 A3026 RMK A01 T00260025  RH  099%=      5-min Rain = 0
KCH1 080018Z 01006KT 03/03 A3026 RMK A01 T00260025  RH  099%=      5-min Rain = 0
KCH1 080019Z 00006KT 03/03 A3026 RMK A01 T00270025  RH  099%=      5-min Rain = 0
KCH1 080020Z 36006KT 03/03 A3026 RMK A01 T00260025  RH  099%=      5-min Rain = 0
KCH1 080021Z 00006KT 03/03 A3026 RMK A01 T00260025  RH  099%=      5-min Rain = 0.01
KCH1 080022Z 36005KT 03/03 A3026 RMK A01 T00260025  RH  099%=      5-min Rain = 0
KCH1 080023Z 00006KT 03/03 A3026 RMK A01 T00260025  RH  099%=      5-min Rain = 0
KCH1 080024Z 00005KT 03/03 A3026 RMK A01 T00270025  RH  099%=      5-min Rain = 0
KCH1 080025Z 00006KT 03/03 A3026 RMK A01 T00270025  RH  099%=      5-min Rain = 0
KCH1 080026Z 01006KT 03/03 A3026 RMK A01 T00270026  RH  099%=      5-min Rain = 0
KCH1 080027Z 00005KT 03/03 A3026 RMK A01 T00270026  RH  099%=      5-min Rain = 0
KCH1 080028Z 36006KT 03/03 A3026 RMK A01 T00270026  RH  099%=      5-min Rain = 0
KCH1 080029Z 00007KT 03/03 A3026 RMK A01 T00270025  RH  099%=      5-min Rain = 0
KCH1 080030Z 00007KT 03/03 A3026 RMK A01 T00270026  RH  099%=      5-min Rain = 0
KCH1 080031Z 01007KT 03/03 A3026 RMK A01 T00270026  RH  099%=      5-min Rain = 0.01
KCH1 080032Z 36007KT 03/03 A3026 RMK A01 T00270025  RH  099%=      5-min Rain = 0
KCH1 080033Z 00007KT 03/03 A3026 RMK A01 T00270025  RH  099%=      5-min Rain = 0
KCH1 080034Z 01008KT 03/03 A3026 RMK A01 T00270025  RH  099%=      5-min Rain = 0
KCH1 080035Z 01010KT 03/03 A3026 RMK A01 T00270025  RH  099%=      5-min Rain = 0
KCH1 080036Z 01008KT 03/03 A3026 RMK A01 T00270025  RH  099%=      5-min Rain = 0
KCH1 080037Z 02009KT 03/03 A3025 RMK A01 T00270025  RH  099%=      5-min Rain = 0
KCH1 080038Z 01007KT 03/03 A3025 RMK A01 T00270025  RH  099%=      5-min Rain = 0
KCH1 080039Z 01008KT 03/03 A3025 RMK A01 T00270025  RH  099%=      5-min Rain = 0
KCH1 080040Z 01007KT 03/03 A3025 RMK A01 T00270025  RH  099%=      5-min Rain = 0
KCH1 080041Z 01008KT 03/03 A3025 RMK A01 T00270025  RH  099%=      5-min Rain = 0
KCH1 080042Z 01008KT 03/03 A3025 RMK A01 T00270025  RH  099%=      5-min Rain = 0
KCH1 080043Z 02005KT 03/03 A3025 RMK A01 T00270025  RH  099%=      5-min Rain = 0
KCH1 080044Z 02006KT 03/03 A3025 RMK A01 T00270025  RH  099%=      5-min Rain = 0.01
KCH1 080045Z 02005KT 03/03 A3025 RMK A01 T00270025  RH  099%=      5-min Rain = 0
KCH1 080046Z 01004KT 03/03 A3026 RMK A01 T00270025  RH  099%=      5-min Rain = 0
KCH1 080047Z 01004KT 03/03 A3026 RMK A01 T00270025  RH  099%=      5-min Rain = 0
KCH1 080048Z 02004KT 03/03 A3026 RMK A01 T00270025  RH  099%=      5-min Rain = 0
KCH1 080049Z 01004KT 03/03 A3026 RMK A01 T00270025  RH  099%=      5-min Rain = 0
KCH1 080050Z 02004KT 03/03 A3026 RMK A01 T00270025  RH  099%=      5-min Rain = 0
KCH1 080051Z 01005KT 03/03 A3026 RMK A01 T00270025  RH  099%=      5-min Rain = 0
KCH1 080052Z 01006KT 03/03 A3026 RMK A01 T00270025  RH  099%=      5-min Rain = 0
KCH1 080053Z 02007KT 03/03 A3026 RMK A01 T00270025  RH  099%=      5-min Rain = 0
KCH1 080054Z 01005KT 03/03 A3026 RMK A01 T00270025  RH  099%=      5-min Rain = 0
KCH1 080055Z 02005KT 03/03 A3026 RMK A01 T00270025  RH  099%=      5-min Rain = 0
KCH1 080056Z 01005KT 03/03 A3026 RMK A01 T00270025  RH  099%=      5-min Rain = 0.01
KCH1 080057Z 02005KT 03/03 A3026 RMK A01 T00270025  RH  099%=      5-min Rain = 0
KCH1 080058Z 01007KT 03/03 A3026 RMK A01 T00270025  RH  099%=      5-min Rain = 0
KCH1 080059Z 02005KT 03/03 A3026 RMK A01 T00270025  RH  099%=      5-min Rain = 0
KCH1 080100Z 02004KT 03/03 A3026 RMK A01 T00270025  RH  099%=      5-min Rain = 0
KCH1 080101Z 01004KT 03/03 A3025 RMK A01 T00270025  RH  099%=      5-min Rain = 0
KCH1 080102Z 01006KT 03/03 A3025 RMK A01 T00270025  RH  099%=      5-min Rain = 0
KCH1 080103Z 01005KT 03/03 A3025 RMK A01 T00270025  RH  099%=      5-min Rain = 0
KCH1 080104Z 02005KT 03/03 A3025 RMK A01 T00270025  RH  099%=      5-min Rain = 0
KCH1 080105Z 02006KT 03/03 A3025 RMK A01 T00270025  RH  099%=      5-min Rain = 0
KCH1 080106Z 02005KT 03/03 A3025 RMK A01 T00270025  RH  099%=      5-min Rain = 0
KCH1 080107Z 02007KT 03/03 A3025 RMK A01 T00270025  RH  099%=      5-min Rain = 0
KCH1 080108Z 02008KT 03/03 A3025 RMK A01 T00270025  RH  099%=      5-min Rain = 0
KCH1 080109Z 01008KT 03/03 A3025 RMK A01 T00270025  RH  099%=      5-min Rain = 0
KCH1 080110Z 01007KT 03/02 A3026 RMK A01 T00260024  RH  099%=      5-min Rain = 0
KCH1 080111Z 01008KT 03/02 A3026 RMK A01 T00260024  RH  099%=      5-min Rain = 0
KCH1 080112Z 02006KT 03/02 A3026 RMK A01 T00260024  RH  098%=      5-min Rain = 0
KCH1 080113Z 02008KT 03/02 A3026 RMK A01 T00260024  RH  098%=      5-min Rain = 0
KCH1 080114Z 02008KT 03/02 A3026 RMK A01 T00260024  RH  098%=      5-min Rain = 0
KCH1 080115Z 02010KT 03/02 A3026 RMK A01 T00260024  RH  098%=      5-min Rain = 0
KCH1 080116Z 02006KT 03/02 A3026 RMK A01 T00260023  RH  098%=      5-min Rain = 0
KCH1 080117Z 01006KT 03/02 A3026 RMK A01 T00260023  RH  098%=      5-min Rain = 0
KCH1 080118Z 01006KT 03/02 A3026 RMK A01 T00260023  RH  098%=      5-min Rain = 0.01
KCH1 080119Z 01007KT 03/02 A3026 RMK A01 T00260023  RH  098%=      5-min Rain = 0
KCH1 080120Z 00008KT 03/02 A3026 RMK A01 T00260023  RH  098%=      5-min Rain = 0
KCH1 080121Z 00007KT 03/02 A3026 RMK A01 T00260023  RH  098%=      5-min Rain = 0
KCH1 080122Z 01007KT 03/02 A3026 RMK A01 T00260023  RH  098%=      5-min Rain = 0
KCH1 080123Z 00005KT 03/02 A3026 RMK A01 T00260023  RH  098%=      5-min Rain = 0
KCH1 080124Z 01007KT 03/02 A3026 RMK A01 T00260023  RH  098%=      5-min Rain = 0
KCH1 080125Z 01007KT 03/02 A3026 RMK A01 T00250022  RH  098%=      5-min Rain = 0
KCH1 080126Z 01006KT 03/02 A3026 RMK A01 T00250022  RH  098%=      5-min Rain = 0
KCH1 080127Z 01006KT 03/02 A3026 RMK A01 T00250023  RH  098%=      5-min Rain = 0
KCH1 080128Z 00006KT 03/02 A3026 RMK A01 T00250022  RH  098%=      5-min Rain = 0
KCH1 080129Z 01005KT 03/02 A3026 RMK A01 T00250022  RH  098%=      5-min Rain = 0
KCH1 080130Z 01006G11KT 03/02 A3026 RMK A01 T00250023  RH  098%=      5-min Rain = 0
KCH1 080131Z 01009KT 03/02 A3026 RMK A01 T00250022  RH  098%=      5-min Rain = 0
KCH1 080132Z 01009KT 03/02 A3026 RMK A01 T00250022  RH  098%=      5-min Rain = 0
KCH1 080133Z 02008KT 03/02 A3026 RMK A01 T00250022  RH  098%=      5-min Rain = 0
KCH1 080134Z 02007KT 03/02 A3026 RMK A01 T00250022  RH  098%=      5-min Rain = 0
KCH1 080135Z 01008KT 03/02 A3026 RMK A01 T00250022  RH  098%=      5-min Rain = 0
KCH1 080136Z 01007KT 03/02 A3026 RMK A01 T00250022  RH  098%=      5-min Rain = 0
KCH1 080137Z 02007KT 03/02 A3026 RMK A01 T00250022  RH  098%=      5-min Rain = 0
KCH1 080138Z 02007KT 02/02 A3026 RMK A01 T00240021  RH  098%=      5-min Rain = 0
KCH1 080139Z 02005KT 02/02 A3026 RMK A01 T00240021  RH  098%=      5-min Rain = 0
KCH1 080140Z 02005KT 03/02 A3026 RMK A01 T00250022  RH  098%=      5-min Rain = 0
KCH1 080141Z 02005KT 03/02 A3025 RMK A01 T00250022  RH  098%=      5-min Rain = 0
KCH1 080142Z 03007KT 02/02 A3025 RMK A01 T00240022  RH  098%=      5-min Rain = 0
KCH1 080143Z 01005KT 02/02 A3025 RMK A01 T00240022  RH  098%=      5-min Rain = 0
KCH1 080144Z 03007KT 02/02 A3025 RMK A01 T00240022  RH  098%=      5-min Rain = 0
KCH1 080145Z 02005KT 03/02 A3025 RMK A01 T00250022  RH  098%=      5-min Rain = 0
KCH1 080146Z 03007KT 02/02 A3025 RMK A01 T00240022  RH  098%=      5-min Rain = 0
KCH1 080147Z 03007KT 03/02 A3025 RMK A01 T00250022  RH  098%=      5-min Rain = 0
KCH1 080148Z 02006KT 02/02 A3025 RMK A01 T00240022  RH  098%=      5-min Rain = 0
KCH1 080149Z 03007KT 03/02 A3025 RMK A01 T00250022  RH  098%=      5-min Rain = 0
KCH1 080150Z 04007KT 02/02 A3025 RMK A01 T00240022  RH  098%=      5-min Rain = 0
KCH1 080151Z 03007KT 03/02 A3025 RMK A01 T00250022  RH  098%=      5-min Rain = 0
KCH1 080152Z 02007KT 02/02 A3025 RMK A01 T00240022  RH  098%=      5-min Rain = 0
KCH1 080153Z 04006KT 03/02 A3025 RMK A01 T00250022  RH  098%=      5-min Rain = 0
KCH1 080154Z 03007KT 03/02 A3025 RMK A01 T00250022  RH  098%=      5-min Rain = 0
KCH1 080155Z 02008KT 02/02 A3025 RMK A01 T00240021  RH  098%=      5-min Rain = 0
KCH1 080156Z 02008KT 02/02 A3026 RMK A01 T00240021  RH  098%=      5-min Rain = 0
KCH1 080157Z 02007KT 02/02 A3026 RMK A01 T00240021  RH  098%=      5-min Rain = 0
KCH1 080158Z 02005KT 02/02 A3026 RMK A01 T00240021  RH  098%=      5-min Rain = 0
KCH1 080159Z 03007KT 02/02 A3026 RMK A01 T00240021  RH  098%=      5-min Rain = 0
KCH1 080200Z 02006KT 02/02 A3026 RMK A01 T00240021  RH  098%=      5-min Rain = 0
KCH1 080201Z 02006KT 02/02 A3026 RMK A01 T00240021  RH  098%=      5-min Rain = 0
KCH1 080202Z 01006KT 02/02 A3026 RMK A01 T00240021  RH  098%=      5-min Rain = 0
KCH1 080203Z 36006KT 02/02 A3026 RMK A01 T00240021  RH  098%=      5-min Rain = 0
KCH1 080204Z 01005KT 02/02 A3026 RMK A01 T00240021  RH  098%=      5-min Rain = 0
KCH1 080205Z 00006KT 02/02 A3026 RMK A01 T00240021  RH  098%=      5-min Rain = 0
KCH1 080206Z 00006KT 02/02 A3026 RMK A01 T00240021  RH  098%=      5-min Rain = 0.01
KCH1 080207Z 01006KT 02/02 A3026 RMK A01 T00240021  RH  098%=      5-min Rain = 0
KCH1 080208Z 01006KT 02/02 A3026 RMK A01 T00240021  RH  098%=      5-min Rain = 0
KCH1 080209Z 01007KT 02/02 A3026 RMK A01 T00240021  RH  098%=      5-min Rain = 0
KCH1 080210Z 36005KT 02/02 A3026 RMK A01 T00240021  RH  098%=      5-min Rain = 0
KCH1 080211Z 01006KT 02/02 A3026 RMK A01 T00240021  RH  098%=      5-min Rain = 0
KCH1 080212Z 00003KT 02/02 A3026 RMK A01 T00240022  RH  098%=      5-min Rain = 0
KCH1 080213Z 01007KT 02/02 A3026 RMK A01 T00240021  RH  098%=      5-min Rain = 0
KCH1 080214Z 02006KT 02/02 A3026 RMK A01 T00240021  RH  098%=      5-min Rain = 0
KCH1 080215Z 01005KT 02/02 A3026 RMK A01 T00240021  RH  098%=      5-min Rain = 0
KCH1 080216Z 01007KT 02/02 A3026 RMK A01 T00240022  RH  098%=      5-min Rain = 0
KCH1 080217Z 01007KT 02/02 A3026 RMK A01 T00240022  RH  098%=      5-min Rain = 0
KCH1 080218Z 02007KT 02/02 A3026 RMK A01 T00240022  RH  098%=      5-min Rain = 0
KCH1 080219Z 00004KT 02/02 A3026 RMK A01 T00240022  RH  098%=      5-min Rain = 0
KCH1 080220Z 01007KT 02/02 A3027 RMK A01 T00240022  RH  098%=      5-min Rain = 0
KCH1 080221Z 36006KT 02/02 A3027 RMK A01 T00240022  RH  099%=      5-min Rain = 0
KCH1 080222Z 35006KT 02/02 A3027 RMK A01 T00240022  RH  099%=      5-min Rain = 0
KCH1 080223Z 36006KT 02/02 A3027 RMK A01 T00240022  RH  099%=      5-min Rain = 0
KCH1 080224Z 36006KT 02/02 A3027 RMK A01 T00240022  RH  099%=      5-min Rain = 0
KCH1 080225Z 36005KT 02/02 A3027 RMK A01 T00230021  RH  099%=      5-min Rain = 0
KCH1 080226Z 36006KT 02/02 A3027 RMK A01 T00240022  RH  099%=      5-min Rain = 0
KCH1 080227Z 35007KT 02/02 A3027 RMK A01 T00240021  RH  099%=      5-min Rain = 0
KCH1 080228Z 35006KT 02/02 A3027 RMK A01 T00230021  RH  098%=      5-min Rain = 0
KCH1 080229Z 00008KT 02/02 A3027 RMK A01 T00230021  RH  098%=      5-min Rain = 0
KCH1 080230Z 35010KT 02/02 A3027 RMK A01 T00230021  RH  098%=      5-min Rain = 0
KCH1 080231Z 35006KT 02/02 A3027 RMK A01 T00230020  RH  098%=      5-min Rain = 0
KCH1 080232Z 36010KT 02/02 A3027 RMK A01 T00230020  RH  098%=      5-min Rain = 0
KCH1 080233Z 35008KT 02/02 A3027 RMK A01 T00220020  RH  098%=      5-min Rain = 0
KCH1 080234Z 01009KT 02/02 A3028 RMK A01 T00220019  RH  098%=      5-min Rain = 0
KCH1 080235Z 00007KT 02/02 A3028 RMK A01 T00220019  RH  098%=      5-min Rain = 0
KCH1 080236Z 00007KT 02/02 A3028 RMK A01 T00220019  RH  098%=      5-min Rain = 0
KCH1 080237Z 36007KT 02/02 A3028 RMK A01 T00220019  RH  098%=      5-min Rain = 0
KCH1 080238Z 00006KT 02/02 A3028 RMK A01 T00220019  RH  098%=      5-min Rain = 0
KCH1 080239Z 35006KT 02/02 A3028 RMK A01 T00220019  RH  098%=      5-min Rain = 0
KCH1 080240Z 36006KT 02/02 A3028 RMK A01 T00220019  RH  098%=      5-min Rain = 0
KCH1 080241Z 35005KT 02/02 A3028 RMK A01 T00220019  RH  098%=      5-min Rain = 0
KCH1 080242Z 35006KT 02/02 A3028 RMK A01 T00220019  RH  098%=      5-min Rain = 0
KCH1 080243Z 00007KT 02/02 A3028 RMK A01 T00230020  RH  098%=      5-min Rain = 0
KCH1 080244Z 01008KT 02/02 A3027 RMK A01 T00230020  RH  098%=      5-min Rain = 0
KCH1 080245Z 00006KT 02/02 A3027 RMK A01 T00230020  RH  098%=      5-min Rain = 0
KCH1 080246Z 35005KT 02/02 A3027 RMK A01 T00230020  RH  098%=      5-min Rain = 0
KCH1 080247Z 36006KT 02/02 A3027 RMK A01 T00230020  RH  098%=      5-min Rain = 0
KCH1 080248Z 36006KT 02/02 A3027 RMK A01 T00220020  RH  098%=      5-min Rain = 0
KCH1 080249Z 36006KT 02/02 A3027 RMK A01 T00230020  RH  098%=      5-min Rain = 0
KCH1 080250Z 01007KT 02/02 A3027 RMK A01 T00230020  RH  098%=      5-min Rain = 0
KCH1 080251Z 00007KT 02/02 A3026 RMK A01 T00230020  RH  098%=      5-min Rain = 0
KCH1 080252Z 00007KT 02/02 A3026 RMK A01 T00220020  RH  098%=      5-min Rain = 0
KCH1 080253Z 02006KT 02/02 A3026 RMK A01 T00220020  RH  098%=      5-min Rain = 0
KCH1 080254Z 01006KT 02/02 A3026 RMK A01 T00220019  RH  098%=      5-min Rain = 0
KCH1 080255Z 02006KT 02/02 A3026 RMK A01 T00220020  RH  098%=      5-min Rain = 0
KCH1 080256Z 01006KT 02/02 A3026 RMK A01 T00220019  RH  098%=      5-min Rain = 0
KCH1 080257Z 01005KT 02/02 A3026 RMK A01 T00220020  RH  098%=      5-min Rain = 0
KCH1 080258Z 03006KT 02/02 A3025 RMK A01 T00220020  RH  098%=      5-min Rain = 0
KCH1 080259Z 02007KT 02/02 A3025 RMK A01 T00220020  RH  098%=      5-min Rain = 0
KCH1 080300Z 02005KT 02/02 A3025 RMK A01 T00220019  RH  098%=      5-min Rain = 0
KCH1 080301Z 01009KT 02/02 A3025 RMK A01 T00220019  RH  098%=      5-min Rain = 0
KCH1 080302Z 02007KT 02/02 A3025 RMK A01 T00210019  RH  098%=      5-min Rain = 0
KCH1 080303Z 02004KT 02/02 A3025 RMK A01 T00210019  RH  098%=      5-min Rain = 0
KCH1 080304Z 02007KT 02/02 A3025 RMK A01 T00210019  RH  098%=      5-min Rain = 0
KCH1 080305Z 01008KT 02/02 A3025 RMK A01 T00210019  RH  098%=      5-min Rain = 0
KCH1 080306Z 01006KT 02/02 A3026 RMK A01 T00210018  RH  098%=      5-min Rain = 0
KCH1 080307Z 01006KT 02/02 A3026 RMK A01 T00210018  RH  098%=      5-min Rain = 0
KCH1 080308Z 01004KT 02/02 A3026 RMK A01 T00210018  RH  098%=      5-min Rain = 0
KCH1 080309Z 01006KT 02/02 A3026 RMK A01 T00210018  RH  098%=      5-min Rain = 0
KCH1 080310Z 02005KT 02/02 A3026 RMK A01 T00210019  RH  098%=      5-min Rain = 0
KCH1 080311Z 01007KT 02/02 A3026 RMK A01 T00210018  RH  098%=      5-min Rain = 0
KCH1 080312Z 00004KT 02/02 A3026 RMK A01 T00210018  RH  098%=      5-min Rain = 0
KCH1 080313Z 00004KT 02/02 A3026 RMK A01 T00210019  RH  098%=      5-min Rain = 0
KCH1 080314Z 01005KT 02/02 A3026 RMK A01 T00220019  RH  098%=      5-min Rain = 0
KCH1 080315Z 02007KT 02/02 A3026 RMK A01 T00220019  RH  098%=      5-min Rain = 0
KCH1 080316Z 02006KT 02/02 A3026 RMK A01 T00220019  RH  098%=      5-min Rain = 0
KCH1 080317Z 02005KT 02/02 A3026 RMK A01 T00220019  RH  098%=      5-min Rain = 0
KCH1 080318Z 01006KT 02/02 A3026 RMK A01 T00220019  RH  098%=      5-min Rain = 0
KCH1 080319Z 01004KT 02/02 A3026 RMK A01 T00220019  RH  098%=      5-min Rain = 0
KCH1 080320Z 36006KT 02/02 A3026 RMK A01 T00220019  RH  098%=      5-min Rain = 0
KCH1 080321Z 35009KT 02/02 A3026 RMK A01 T00220019  RH  098%=      5-min Rain = 0
KCH1 080322Z 01006KT 02/02 A3026 RMK A01 T00220019  RH  098%=      5-min Rain = 0
KCH1 080323Z 01007KT 02/02 A3026 RMK A01 T00220019  RH  098%=      5-min Rain = 0
KCH1 080324Z 36006KT 02/02 A3026 RMK A01 T00220019  RH  098%=      5-min Rain = 0
KCH1 080325Z 36005KT 02/02 A3026 RMK A01 T00220018  RH  098%=      5-min Rain = 0
KCH1 080326Z 01005KT 02/02 A3026 RMK A01 T00220019  RH  098%=      5-min Rain = 0
KCH1 080327Z 01006KT 02/02 A3026 RMK A01 T00220019  RH  098%=      5-min Rain = 0
KCH1 080328Z 01005KT 02/02 A3026 RMK A01 T00220019  RH  098%=      5-min Rain = 0
KCH1 080329Z 00009KT 02/02 A3026 RMK A01 T00220019  RH  098%=      5-min Rain = 0
KCH1 080330Z 00009KT 02/02 A3026 RMK A01 T00220018  RH  098%=      5-min Rain = 0
KCH1 080331Z 01007KT 02/02 A3026 RMK A01 T00220018  RH  098%=      5-min Rain = 0
KCH1 080332Z 00006KT 02/02 A3026 RMK A01 T00220018  RH  097%=      5-min Rain = 0
KCH1 080333Z 00006KT 02/02 A3026 RMK A01 T00220018  RH  097%=      5-min Rain = 0
KCH1 080334Z 35007KT 02/02 A3026 RMK A01 T00220018  RH  098%=      5-min Rain = 0
KCH1 080335Z 35006KT 02/02 A3026 RMK A01 T00220018  RH  097%=      5-min Rain = 0
KCH1 080336Z 01007KT 02/02 A3026 RMK A01 T00220018  RH  097%=      5-min Rain = 0
KCH1 080337Z 36004KT 02/02 A3027 RMK A01 T00220018  RH  097%=      5-min Rain = 0
KCH1 080338Z 00006KT 02/02 A3026 RMK A01 T00220018  RH  097%=      5-min Rain = 0
KCH1 080339Z 00006KT 02/02 A3027 RMK A01 T00220018  RH  097%=      5-min Rain = 0
KCH1 080340Z 35007KT 02/02 A3026 RMK A01 T00220018  RH  097%=      5-min Rain = 0
KCH1 080341Z 36006KT 02/02 A3027 RMK A01 T00220018  RH  097%=      5-min Rain = 0
KCH1 080342Z 01006KT 02/02 A3027 RMK A01 T00220018  RH  097%=      5-min Rain = 0
KCH1 080343Z 00007KT 02/02 A3026 RMK A01 T00220018  RH  097%=      5-min Rain = 0
KCH1 080344Z 02007KT 02/02 A3026 RMK A01 T00220018  RH  097%=      5-min Rain = 0
KCH1 080345Z 01006KT 02/02 A3026 RMK A01 T00220017  RH  097%=      5-min Rain = 0
KCH1 080346Z 00006KT 02/02 A3026 RMK A01 T00220017  RH  097%=      5-min Rain = 0
KCH1 080347Z 01005KT 02/02 A3026 RMK A01 T00220017  RH  097%=      5-min Rain = 0
KCH1 080348Z 01006KT 02/02 A3025 RMK A01 T00220017  RH  097%=      5-min Rain = 0
KCH1 080349Z 01007KT 02/02 A3025 RMK A01 T00220018  RH  097%=      5-min Rain = 0
KCH1 080350Z 01008KT 02/02 A3025 RMK A01 T00220017  RH  097%=      5-min Rain = 0
KCH1 080351Z 36006KT 02/02 A3025 RMK A01 T00220017  RH  097%=      5-min Rain = 0
KCH1 080352Z 01006KT 02/02 A3025 RMK A01 T00220018  RH  097%=      5-min Rain = 0
KCH1 080353Z 01006KT 02/02 A3025 RMK A01 T00220018  RH  097%=      5-min Rain = 0
KCH1 080354Z 01006KT 02/02 A3025 RMK A01 T00220018  RH  097%=      5-min Rain = 0
KCH1 080355Z 00006KT 02/02 A3025 RMK A01 T00220018  RH  097%=      5-min Rain = 0
KCH1 080356Z 36006KT 02/02 A3025 RMK A01 T00220018  RH  097%=      5-min Rain = 0
KCH1 080357Z 00005KT 02/02 A3025 RMK A01 T00220018  RH  097%=      5-min Rain = 0
KCH1 080358Z 36004KT 02/02 A3025 RMK A01 T00220018  RH  097%=      5-min Rain = 0
KCH1 080359Z 36004KT 02/02 A3025 RMK A01 T00220018  RH  097%=      5-min Rain = 0
KCH1 080400Z 01006KT 02/02 A3025 RMK A01 T00220018  RH  097%=      5-min Rain = 0
KCH1 080401Z 36006KT 02/02 A3025 RMK A01 T00220018  RH  097%=      5-min Rain = 0
KCH1 080402Z 35007KT 02/02 A3025 RMK A01 T00220018  RH  097%=      5-min Rain = 0
KCH1 080403Z 35005KT 02/02 A3025 RMK A01 T00220018  RH  097%=      5-min Rain = 0
KCH1 080404Z 00005KT 02/02 A3025 RMK A01 T00220018  RH  097%=      5-min Rain = 0
KCH1 080405Z 00005KT 02/02 A3025 RMK A01 T00220018  RH  097%=      5-min Rain = 0
KCH1 080406Z 00006KT 02/02 A3024 RMK A01 T00220019  RH  097%=      5-min Rain = 0
KCH1 080407Z 36005KT 02/02 A3024 RMK A01 T00220018  RH  097%=      5-min Rain = 0
KCH1 080408Z 01005KT 02/02 A3024 RMK A01 T00220018  RH  097%=      5-min Rain = 0
KCH1 080409Z 02004KT 02/02 A3024 RMK A01 T00220019  RH  097%=      5-min Rain = 0
KCH1 080410Z 01004KT 02/02 A3023 RMK A01 T00220019  RH  098%=      5-min Rain = 0
KCH1 080411Z 02005KT 02/02 A3023 RMK A01 T00220019  RH  098%=      5-min Rain = 0
KCH1 080412Z 01005KT 02/02 A3023 RMK A01 T00220019  RH  098%=      5-min Rain = 0
KCH1 080413Z 01005KT 02/02 A3023 RMK A01 T00220019  RH  098%=      5-min Rain = 0
KCH1 080414Z 02005KT 02/02 A3023 RMK A01 T00220019  RH  098%=      5-min Rain = 0
KCH1 080415Z 01005KT 02/02 A3023 RMK A01 T00220019  RH  098%=      5-min Rain = 0
KCH1 080416Z 02006KT 02/02 A3023 RMK A01 T00220019  RH  098%=      5-min Rain = 0
KCH1 080417Z 01005KT 02/02 A3023 RMK A01 T00220019  RH  098%=      5-min Rain = 0
KCH1 080418Z 01006KT 02/02 A3023 RMK A01 T00220019  RH  098%=      5-min Rain = 0.01
KCH1 080419Z 01006KT 02/02 A3023 RMK A01 T00220019  RH  098%=      5-min Rain = 0
KCH1 080420Z 01005KT 02/02 A3023 RMK A01 T00220019  RH  098%=      5-min Rain = 0
KCH1 080421Z 01005KT 02/02 A3023 RMK A01 T00220019  RH  098%=      5-min Rain = 0
KCH1 080422Z 01006KT 02/02 A3023 RMK A01 T00220019  RH  098%=      5-min Rain = 0
KCH1 080423Z 02008KT 02/02 A3023 RMK A01 T00220019  RH  098%=      5-min Rain = 0
KCH1 080424Z 00005KT 02/02 A3022 RMK A01 T00220019  RH  098%=      5-min Rain = 0
KCH1 080425Z 01005KT 02/02 A3022 RMK A01 T00220019  RH  098%=      5-min Rain = 0
KCH1 080426Z 01004KT 02/02 A3022 RMK A01 T00220019  RH  098%=      5-min Rain = 0
KCH1 080427Z 00007KT 02/02 A3022 RMK A01 T00220019  RH  098%=      5-min Rain = 0
KCH1 080428Z 01005KT 02/02 A3022 RMK A01 T00220019  RH  098%=      5-min Rain = 0
KCH1 080429Z 02007KT 02/02 A3022 RMK A01 T00220019  RH  098%=      5-min Rain = 0
KCH1 080430Z 02007KT 02/02 A3022 RMK A01 T00220019  RH  098%=      5-min Rain = 0
KCH1 080431Z 03005KT 02/02 A3022 RMK A01 T00220019  RH  098%=      5-min Rain = 0
KCH1 080432Z 03007G12KT 02/02 A3021 RMK A01 T00220019  RH  098%=      5-min Rain = 0
KCH1 080433Z 03010KT 02/02 A3021 RMK A01 T00220020  RH  098%=      5-min Rain = 0
KCH1 080434Z 02006KT 02/02 A3021 RMK A01 T00230020  RH  098%=      5-min Rain = 0
KCH1 080435Z 04005KT 02/02 A3021 RMK A01 T00230020  RH  098%=      5-min Rain = 0
KCH1 080436Z 03005KT 02/02 A3021 RMK A01 T00230020  RH  098%=      5-min Rain = 0
KCH1 080437Z 04005KT 02/02 A3021 RMK A01 T00230020  RH  098%=      5-min Rain = 0
KCH1 080438Z 04005KT 02/02 A3021 RMK A01 T00230020  RH  098%=      5-min Rain = 0
KCH1 080439Z 04006KT 02/02 A3021 RMK A01 T00230020  RH  098%=      5-min Rain = 0
KCH1 080440Z 04005KT 02/02 A3021 RMK A01 T00230021  RH  098%=      5-min Rain = 0
KCH1 080441Z 05007KT 02/02 A3021 RMK A01 T00230021  RH  098%=      5-min Rain = 0
KCH1 080442Z 04007KT 02/02 A3021 RMK A01 T00230021  RH  098%=      5-min Rain = 0
KCH1 080443Z 04008KT 02/02 A3021 RMK A01 T00230020  RH  098%=      5-min Rain = 0
KCH1 080444Z 04007KT 02/02 A3021 RMK A01 T00230020  RH  098%=      5-min Rain = 0
KCH1 080445Z 03006KT 02/02 A3021 RMK A01 T00230020  RH  098%=      5-min Rain = 0
KCH1 080446Z 04004KT 02/02 A3021 RMK A01 T00230020  RH  098%=      5-min Rain = 0
KCH1 080447Z 03006KT 02/02 A3022 RMK A01 T00230020  RH  098%=      5-min Rain = 0
KCH1 080448Z 01006KT 02/02 A3022 RMK A01 T00230020  RH  098%=      5-min Rain = 0
KCH1 080449Z 02008KT 02/02 A3022 RMK A01 T00230019  RH  098%=      5-min Rain = 0
KCH1 080450Z 01007KT 02/02 A3023 RMK A01 T00230019  RH  098%=      5-min Rain = 0
KCH1 080451Z 01005KT 02/02 A3023 RMK A01 T00230019  RH  098%=      5-min Rain = 0
KCH1 080452Z 00005KT 02/02 A3023 RMK A01 T00230019  RH  097%=      5-min Rain = 0
KCH1 080453Z 36005KT 02/02 A3023 RMK A01 T00220019  RH  097%=      5-min Rain = 0
KCH1 080454Z 35005KT 02/02 A3024 RMK A01 T00230019  RH  097%=      5-min Rain = 0
KCH1 080455Z 36004KT 02/02 A3024 RMK A01 T00230019  RH  097%=      5-min Rain = 0
KCH1 080456Z 36004KT 02/02 A3024 RMK A01 T00230019  RH  097%=      5-min Rain = 0
KCH1 080457Z 35004KT 02/02 A3024 RMK A01 T00230019  RH  097%=      5-min Rain = 0
KCH1 080458Z 35003KT 02/02 A3024 RMK A01 T00230019  RH  097%=      5-min Rain = 0
KCH1 080459Z 35005KT 02/02 A3024 RMK A01 T00230019  RH  097%=      5-min Rain = 0
KCH1 080500Z 01005KT 02/02 A3024 RMK A01 T00230019  RH  097%=      5-min Rain = 0
KCH1 080501Z 36006KT 02/02 A3024 RMK A01 T00230019  RH  097%=      5-min Rain = 0
KCH1 080502Z 35007KT 02/02 A3023 RMK A01 T00230019  RH  097%=      5-min Rain = 0
KCH1 080503Z 36009KT 02/02 A3023 RMK A01 T00230019  RH  097%=      5-min Rain = 0
KCH1 080504Z 35008KT 02/02 A3023 RMK A01 T00230019  RH  097%=      5-min Rain = 0
KCH1 080505Z 01008KT 02/02 A3023 RMK A01 T00220018  RH  097%=      5-min Rain = 0
KCH1 080506Z 01010KT 02/02 A3022 RMK A01 T00220019  RH  097%=      5-min Rain = 0
KCH1 080507Z 01009KT 02/02 A3022 RMK A01 T00220018  RH  097%=      5-min Rain = 0
KCH1 080508Z 00011G17KT 02/02 A3022 RMK A01 T00220018  RH  097%=      5-min Rain = 0
KCH1 080509Z 01014KT 02/02 A3022 RMK A01 T00210017  RH  097%=      5-min Rain = 0
KCH1 080510Z 01012KT 02/02 A3023 RMK A01 T00210016  RH  097%=      5-min Rain = 0
KCH1 080511Z 01008KT 02/02 A3023 RMK A01 T00210016  RH  096%=      5-min Rain = 0
KCH1 080512Z 36008KT 02/02 A3024 RMK A01 T00210016  RH  096%=      5-min Rain = 0
KCH1 080513Z 35008KT 02/02 A3025 RMK A01 T00210016  RH  096%=      5-min Rain = 0
KCH1 080514Z 35009KT 02/02 A3025 RMK A01 T00210016  RH  096%=      5-min Rain = 0
KCH1 080515Z 35010KT 02/02 A3025 RMK A01 T00210015  RH  096%=      5-min Rain = 0
KCH1 080516Z 34008KT 02/02 A3025 RMK A01 T00210016  RH  096%=      5-min Rain = 0
KCH1 080517Z 35006KT 02/02 A3025 RMK A01 T00210015  RH  096%=      5-min Rain = 0
KCH1 080518Z 35006KT 02/02 A3024 RMK A01 T00210015  RH  096%=      5-min Rain = 0
KCH1 080519Z 34007KT 02/02 A3024 RMK A01 T00210016  RH  096%=      5-min Rain = 0
KCH1 080520Z 01005KT 02/02 A3024 RMK A01 T00210016  RH  096%=      5-min Rain = 0
KCH1 080521Z 36005KT 02/02 A3024 RMK A01 T00220016  RH  096%=      5-min Rain = 0
KCH1 080522Z 00006KT 02/02 A3024 RMK A01 T00210016  RH  096%=      5-min Rain = 0
KCH1 080523Z 36007KT 02/02 A3024 RMK A01 T00210016  RH  096%=      5-min Rain = 0
KCH1 080524Z 36008KT 02/02 A3023 RMK A01 T00210016  RH  096%=      5-min Rain = 0
KCH1 080525Z 00008KT 02/02 A3023 RMK A01 T00210016  RH  096%=      5-min Rain = 0
KCH1 080526Z 01008KT 02/02 A3023 RMK A01 T00210016  RH  096%=      5-min Rain = 0
KCH1 080527Z 35007KT 02/02 A3023 RMK A01 T00210016  RH  096%=      5-min Rain = 0
KCH1 080528Z 36005KT 02/02 A3023 RMK A01 T00210016  RH  097%=      5-min Rain = 0
KCH1 080529Z 00006KT 02/02 A3023 RMK A01 T00210016  RH  097%=      5-min Rain = 0
KCH1 080530Z 01006KT 02/02 A3022 RMK A01 T00210017  RH  097%=      5-min Rain = 0
KCH1 080531Z 01006KT 02/02 A3022 RMK A01 T00210017  RH  097%=      5-min Rain = 0
KCH1 080532Z 01006KT 02/02 A3022 RMK A01 T00210017  RH  097%=      5-min Rain = 0
KCH1 080533Z 01006KT 02/02 A3022 RMK A01 T00210017  RH  097%=      5-min Rain = 0
KCH1 080534Z 00007KT 02/02 A3022 RMK A01 T00210017  RH  097%=      5-min Rain = 0
KCH1 080535Z 00005KT 02/02 A3022 RMK A01 T00210017  RH  097%=      5-min Rain = 0
KCH1 080536Z 00003KT 02/02 A3022 RMK A01 T00210017  RH  097%=      5-min Rain = 0
KCH1 080537Z 00005KT 02/02 A3022 RMK A01 T00210017  RH  098%=      5-min Rain = 0
KCH1 080538Z 36005KT 02/02 A3022 RMK A01 T00210017  RH  098%=      5-min Rain = 0
KCH1 080539Z 36007KT 02/02 A3022 RMK A01 T00210017  RH  098%=      5-min Rain = 0
KCH1 080540Z 35005KT 02/02 A3023 RMK A01 T00200017  RH  098%=      5-min Rain = 0
KCH1 080541Z 34005KT 02/02 A3023 RMK A01 T00200017  RH  098%=      5-min Rain = 0
KCH1 080542Z 34005KT 02/02 A3023 RMK A01 T00210017  RH  098%=      5-min Rain = 0
KCH1 080543Z 34005KT 02/02 A3023 RMK A01 T00200017  RH  097%=      5-min Rain = 0
KCH1 080544Z 35007KT 02/02 A3023 RMK A01 T00210017  RH  097%=      5-min Rain = 0
KCH1 080545Z 35007KT 02/02 A3023 RMK A01 T00200016  RH  097%=      5-min Rain = 0
KCH1 080546Z 35007KT 02/02 A3023 RMK A01 T00200016  RH  097%=      5-min Rain = 0
KCH1 080547Z 35006KT 02/02 A3023 RMK A01 T00200016  RH  097%=      5-min Rain = 0
KCH1 080548Z 36007KT 02/02 A3023 RMK A01 T00200016  RH  097%=      5-min Rain = 0
KCH1 080549Z 01006KT 02/02 A3023 RMK A01 T00200016  RH  097%=      5-min Rain = 0
KCH1 080550Z 00006KT 02/02 A3023 RMK A01 T00200016  RH  097%=      5-min Rain = 0
KCH1 080551Z 36007KT 02/02 A3023 RMK A01 T00200016  RH  098%=      5-min Rain = 0
KCH1 080552Z 35005KT 02/02 A3023 RMK A01 T00200016  RH  097%=      5-min Rain = 0
KCH1 080553Z 00008KT 02/02 A3023 RMK A01 T00200016  RH  098%=      5-min Rain = 0
KCH1 080554Z 36008KT 02/02 A3023 RMK A01 T00190016  RH  098%=      5-min Rain = 0
KCH1 080555Z 35008KT 02/02 A3023 RMK A01 T00200016  RH  098%=      5-min Rain = 0
KCH1 080556Z 35009KT 02/02 A3023 RMK A01 T00190016  RH  098%=      5-min Rain = 0
KCH1 080557Z 35009KT 02/02 A3023 RMK A01 T00190016  RH  098%=      5-min Rain = 0.01
KCH1 080558Z 00009KT 02/02 A3023 RMK A01 T00200016  RH  098%=      5-min Rain = 0
KCH1 080559Z 01008KT 02/02 A3023 RMK A01 T00190016  RH  098%=      5-min Rain = 0

Page generated in 0.0859 seconds.